M I D A S
Marine Information and Data Acquisition System
Tripno 2059 of the Zeeleeuw from 2011-03-16 07:51:13 to 2011-03-16 15:12:10
Back to CruiseResearch ActivitiesStationsMapUnderway DataData graphs

EquipmentUnitsComment
TimeDGPSUTC
LatitudeDGPSDM.mWGS84
LongitudeDGPSDM.mWGS84
TemperatureSBE03/SBE38deg celciusITS90
ConductivitySBE21S/mITS90
SalinitySBE21 Practical Salinity Units
ChlorophylAChelsea fluorimeterg/lCalibrated in Aceton
Missing or incorrect values are displayed as -999
Sea surface data collected by the RV Zeeleeuw from 2011-03-16 07:52:53 to 2011-03-16 15:19:00
                                                                                    Next 1000 lines
Time Latitude Longitude Temperature Conductivity Salinity ChlorophylA
2011-03-16 07:53:02 51°13.661 2°55.956 14.68 0.067797 0.372841 -3.020363
2011-03-16 07:53:08 51°13.662 2°55.952 14.7195 0.067797 0.372841 -3.020363
2011-03-16 07:53:13 51°13.662 2°55.949 14.75 0.067797 0.372841 -3.020363
2011-03-16 07:53:17 51°13.663 2°55.946 14.7563 0.067797 0.372841 -3.020363
2011-03-16 07:53:22 51°13.664 2°55.941 14.7641 0.067797 0.372847 -3.020363
2011-03-16 07:53:28 51°13.666 2°55.935 14.7865 0.067797 0.372854 -3.020363
2011-03-16 07:53:33 51°13.667 2°55.929 14.76 0.067797 0.372861 -3.020363
2011-03-16 07:53:38 51°13.669 2°55.923 14.7508 0.067797 0.372861 -3.020363
2011-03-16 07:53:44 51°13.67 2°55.915 14.7546 0.067797 0.372861 -3.020363
2011-03-16 07:53:49 51°13.672 2°55.908 14.7567 0.067797 0.372861 -3.020363
2011-03-16 07:53:53 51°13.673 2°55.902 14.7751 0.067797 0.372861 -3.020363
2011-03-16 07:53:58 51°13.674 2°55.895 14.7604 0.067797 0.372861 -3.020363
2011-03-16 07:54:04 51°13.676 2°55.885 14.8135 0.067797 0.372861 -3.020363
2011-03-16 07:54:09 51°13.677 2°55.877 14.835 0.067797 0.372854 -3.020363
2011-03-16 07:54:13 51°13.679 2°55.87 14.8394 0.067797 0.372861 -3.020363
2011-03-16 07:54:19 51°13.68 2°55.861 14.825 0.067797 0.372861 -3.020363
2011-03-16 07:54:24 51°13.681 2°55.854 14.8369 0.067797 0.372854 -3.020363
2011-03-16 07:54:28 51°13.682 2°55.848 14.8224 0.067797 0.372861 -3.020363
2011-03-16 07:54:33 51°13.684 2°55.841 14.8135 0.067797 0.372861 -3.020363
2011-03-16 07:54:38 51°13.685 2°55.833 14.772 0.067797 0.372867 -3.020363
2011-03-16 07:54:44 51°13.686 2°55.825 14.8014 0.067797 0.372867 -3.020363
2011-03-16 07:54:48 51°13.687 2°55.82 14.8202 0.067797 0.372867 -3.020363
2011-03-16 07:54:53 51°13.688 2°55.813 14.8529 0.067797 0.372874 -3.020363
2011-03-16 07:54:58 51°13.689 2°55.808 14.8253 0.067797 0.372874 -3.020363
2011-03-16 07:55:04 51°13.69 2°55.802 14.83 0.067797 0.372881 -3.020363
2011-03-16 07:55:09 51°13.691 2°55.797 14.8255 0.067797 0.372874 -3.020363
2011-03-16 07:55:13 51°13.692 2°55.794 14.8434 0.067797 0.372881 -3.020363
2011-03-16 07:55:18 51°13.693 2°55.79 14.8298 0.067797 0.372881 -3.020363
2011-03-16 07:55:23 51°13.693 2°55.787 14.8202 0.067797 0.372874 -3.020363
2011-03-16 07:55:28 51°13.694 2°55.785 14.7015 0.067797 0.372874 -3.020363
2011-03-16 07:55:33 51°13.694 2°55.782 14.7189 0.067797 0.372867 -3.020363
2011-03-16 07:55:37 51°13.695 2°55.78 14.6598 0.067797 0.372861 -3.020363
2011-03-16 07:55:42 51°13.696 2°55.777 14.7639 0.067797 0.372854 -3.020363
2011-03-16 07:55:47 51°13.697 2°55.774 14.6951 0.067797 0.372854 -3.020363
2011-03-16 07:55:52 51°13.699 2°55.77 14.7083 0.067797 0.372867 -3.020363
2011-03-16 07:55:57 51°13.701 2°55.766 14.7549 0.067797 0.372887 -3.020363
2011-03-16 07:56:02 51°13.703 2°55.761 14.7942 0.067797 0.372907 -3.020363
2011-03-16 07:56:08 51°13.706 2°55.755 14.7791 0.067797 0.372927 -3.020363
2011-03-16 07:56:13 51°13.708 2°55.75 14.7862 0.067797 0.37294 -3.020363
2011-03-16 07:56:18 51°13.711 2°55.745 14.7698 0.067797 0.37294 -3.020363
2011-03-16 07:56:24 51°13.715 2°55.738 14.8126 0.067797 0.372947 -3.020363
2011-03-16 07:56:29 51°13.719 2°55.732 14.7998 0.067797 0.37294 -3.020363
2011-03-16 07:56:33 51°13.722 2°55.728 14.849 0.067797 0.372927 -3.020363
2011-03-16 07:56:39 51°13.726 2°55.721 14.8463 0.067797 0.372921 -3.020363
2011-03-16 07:56:45 51°13.731 2°55.714 14.8398 0.067797 0.372914 -3.020363
2011-03-16 07:56:49 51°13.735 2°55.71 14.8177 0.067797 0.372914 -3.020363
2011-03-16 07:56:53 51°13.738 2°55.706 14.8195 0.067797 0.372907 -3.020363
2011-03-16 07:56:59 51°13.744 2°55.699 14.8122 0.067797 0.372907 -3.020363
2011-03-16 07:57:05 51°13.749 2°55.693 14.814 0.067797 0.372914 -3.020363
2011-03-16 07:57:09 51°13.754 2°55.689 14.8142 0.067797 0.372927 -3.020363
2011-03-16 07:57:13 51°13.758 2°55.685 14.8228 0.067797 0.372934 -3.020363
2011-03-16 07:57:18 51°13.764 2°55.68 14.829 0.067797 0.372934 -3.020363
2011-03-16 07:57:24 51°13.771 2°55.674 14.8305 0.067797 0.372947 -3.020363
2011-03-16 07:57:29 51°13.777 2°55.669 14.8308 0.067797 0.372947 -3.020363
2011-03-16 07:57:33 51°13.782 2°55.665 14.8286 0.067797 0.37294 -3.020363
2011-03-16 07:57:38 51°13.788 2°55.661 14.823 0.067797 0.372934 -3.020363
2011-03-16 07:57:44 51°13.796 2°55.656 14.8273 0.067797 0.372934 -3.020363
2011-03-16 07:57:49 51°13.803 2°55.651 14.8333 0.067797 0.372934 -3.020363
2011-03-16 07:57:53 51°13.808 2°55.648 14.7972 0.067797 0.372921 -3.020363
2011-03-16 07:57:59 51°13.816 2°55.643 14.7978 0.067797 0.372921 -3.020363
2011-03-16 07:58:03 51°13.822 2°55.64 14.8246 0.067797 0.372927 -3.020363
2011-03-16 07:58:10 51°13.832 2°55.635 14.834 0.067797 0.372934 -3.020363
2011-03-16 07:58:14 51°13.838 2°55.632 14.8336 0.067797 0.37294 -3.020363
2011-03-16 07:58:18 51°13.843 2°55.629 14.8565 0.067797 0.37294 -3.020363
2011-03-16 07:58:23 51°13.85 2°55.626 14.8078 0.067797 0.372947 -3.020363
2011-03-16 07:58:28 51°13.857 2°55.624 14.8156 0.067797 0.372954 -3.020363
2011-03-16 07:58:33 51°13.864 2°55.621 14.837 0.067797 0.372954 -3.020363
2011-03-16 07:58:38 51°13.871 2°55.62 14.8678 0.067797 0.37296 -3.020363
2011-03-16 07:58:44 51°13.879 2°55.618 14.8527 0.067797 0.37296 -3.020363
2011-03-16 07:58:49 51°13.886 2°55.617 14.8732 0.067797 0.37296 -3.020363
2011-03-16 07:58:53 51°13.891 2°55.617 14.826 0.067797 0.37296 -3.020363
2011-03-16 07:58:58 51°13.898 2°55.617 14.8249 0.067797 0.37296 -3.020363
2011-03-16 07:59:04 51°13.905 2°55.618 14.8388 0.067797 0.37296 -3.020363
2011-03-16 07:59:08 51°13.91 2°55.619 14.8524 0.067797 0.37296 -3.020363
2011-03-16 07:59:13 51°13.916 2°55.62 14.8354 0.067797 0.372967 -3.020363
2011-03-16 07:59:18 51°13.922 2°55.622 14.7973 0.067797 0.372967 -3.020363
2011-03-16 07:59:24 51°13.928 2°55.625 14.8105 0.067797 0.372974 -3.020363
2011-03-16 07:59:28 51°13.932 2°55.626 14.8347 0.067797 0.372974 -3.020363
2011-03-16 07:59:33 51°13.937 2°55.629 14.8416 0.067797 0.37298 -3.020363
2011-03-16 07:59:38 51°13.941 2°55.632 14.8311 0.067797 0.37298 -3.020363
2011-03-16 07:59:43 51°13.945 2°55.635 14.8874 0.067797 0.37298 -3.020363
2011-03-16 07:59:48 51°13.949 2°55.637 14.828 0.067797 0.37298 -3.020363
2011-03-16 07:59:53 51°13.952 2°55.639 14.8209 0.067797 0.372987 -3.020363
2011-03-16 07:59:57 51°13.954 2°55.641 14.7903 0.067797 0.37298 -3.020363
2011-03-16 08:00:03 51°13.956 2°55.643 14.8447 0.067797 0.37298 -3.020363
2011-03-16 08:00:09 51°13.958 2°55.644 14.8114 0.067797 0.372987 -3.020363
2011-03-16 08:00:14 51°13.959 2°55.645 14.7702 0.067797 0.372987 -3.020363
2011-03-16 08:00:18 51°13.96 2°55.645 14.7951 0.067797 0.372987 -3.020363
2011-03-16 08:00:22 51°13.96 2°55.645 14.787 0.067797 0.372994 -3.020363
2011-03-16 08:00:28 51°13.961 2°55.645 14.9123 0.067797 0.372994 -3.020363
2011-03-16 08:00:33 51°13.961 2°55.643 14.9037 0.067797 0.373 -3.020363
2011-03-16 08:00:37 51°13.96 2°55.64 14.5481 0.067797 0.373014 -3.020363
2011-03-16 08:00:41 51°13.96 2°55.636 14.6028 0.067797 0.37304 -3.020363
2011-03-16 08:00:46 51°13.96 2°55.632 14.576 0.067797 0.37304 -3.020363
2011-03-16 08:00:52 51°13.96 2°55.627 14.728 0.067797 0.37306 -3.020363
2011-03-16 08:00:57 51°13.961 2°55.622 14.7145 0.067797 0.373067 -3.020363
2011-03-16 08:01:01 51°13.961 2°55.619 14.7449 0.067797 0.37304 -3.020363
2011-03-16 08:01:06 51°13.962 2°55.614 14.7603 0.067797 0.373007 -3.020363
2011-03-16 08:01:11 51°13.963 2°55.608 14.7586 0.067797 0.372967 -3.020363
2011-03-16 08:01:16 51°13.964 2°55.602 14.8082 0.067797 0.372967 -3.020363
2011-03-16 08:01:21 51°13.966 2°55.596 14.7371 0.067797 0.372954 -3.020363
2011-03-16 08:01:25 51°13.968 2°55.59 14.7668 0.067797 0.372947 -3.020363
2011-03-16 08:01:30 51°13.971 2°55.582 14.7424 0.067797 0.372967 -3.020363
2011-03-16 08:01:36 51°13.974 2°55.572 14.7512 0.067797 0.372994 -3.020363
2011-03-16 08:01:41 51°13.977 2°55.563 14.7449 0.067797 0.37302 -3.020363
2011-03-16 08:01:46 51°13.981 2°55.554 14.7214 0.067797 0.37302 -3.020363
2011-03-16 08:01:49 51°13.983 2°55.548 14.6113 0.067797 0.373047 -3.020363
2011-03-16 08:01:56 51°13.989 2°55.534 14.5893 0.067797 0.373054 -3.020363
2011-03-16 08:02:01 51°13.995 2°55.525 14.5631 0.067797 0.37306 -3.020363
2011-03-16 08:02:05 51°13.999 2°55.517 14.6438 0.067797 0.373054 -3.020363
2011-03-16 08:02:09 51°14.004 2°55.51 14.5994 0.067797 0.373047 -3.020363
2011-03-16 08:02:16 51°14.012 2°55.497 14.6444 0.067797 0.373047 -3.020363
2011-03-16 08:02:21 51°14.019 2°55.488 14.6436 0.067797 0.37304 -3.020363
2011-03-16 08:02:26 51°14.025 2°55.48 14.6521 0.067797 0.373034 -3.020363
2011-03-16 08:02:31 51°14.033 2°55.472 14.7053 0.067797 0.373027 -3.020363
2011-03-16 08:02:36 51°14.04 2°55.464 14.7159 0.067797 0.373034 -3.020363
2011-03-16 08:02:41 51°14.047 2°55.456 14.7109 0.067797 0.37304 -3.020363
2011-03-16 08:02:46 51°14.055 2°55.448 14.6884 0.067797 0.37304 -3.020363
2011-03-16 08:02:51 51°14.064 2°55.44 14.6469 0.067797 0.37304 -3.020363
2011-03-16 08:02:55 51°14.071 2°55.434 14.6324 0.067797 0.373047 -3.020363
2011-03-16 08:03:01 51°14.082 2°55.426 14.7112 0.067797 0.373047 -3.020363
2011-03-16 08:03:06 51°14.093 2°55.419 14.6939 0.067797 0.373054 -3.020363
2011-03-16 08:03:11 51°14.103 2°55.413 14.6211 0.067797 0.373054 -3.020363
2011-03-16 08:03:16 51°14.114 2°55.407 14.6729 0.067797 0.373054 -3.020363
2011-03-16 08:03:21 51°14.125 2°55.401 14.7144 0.067797 0.37306 -3.020363
2011-03-16 08:03:26 51°14.136 2°55.394 14.7262 0.067797 0.373067 -3.020363
2011-03-16 08:03:30 51°14.145 2°55.389 14.729 0.067797 0.373074 -3.020363
2011-03-16 08:03:36 51°14.159 2°55.381 14.7813 0.067797 0.373074 -3.020363
2011-03-16 08:03:41 51°14.171 2°55.375 14.6452 0.067797 0.373074 -3.020363
2011-03-16 08:03:46 51°14.182 2°55.367 14.7063 0.067797 0.373074 -3.020363
2011-03-16 08:03:50 51°14.192 2°55.361 14.7319 0.067797 0.373074 -3.020363
2011-03-16 08:03:56 51°14.206 2°55.352 14.6903 0.067797 0.37308 -3.020363
2011-03-16 08:04:01 51°14.218 2°55.343 14.7181 0.067797 0.37308 -3.020363
2011-03-16 08:04:06 51°14.229 2°55.335 14.7105 0.067797 0.373087 -3.020363
2011-03-16 08:04:11 51°14.241 2°55.326 14.674 0.067797 0.373093 -3.020363
2011-03-16 08:04:15 51°14.25 2°55.319 14.6985 0.067797 0.373093 -3.020363
2011-03-16 08:04:21 51°14.265 2°55.307 14.6843 0.067797 0.3731 -3.020363
2011-03-16 08:04:26 51°14.277 2°55.297 14.7202 0.067797 0.3731 -3.020363
2011-03-16 08:04:31 51°14.288 2°55.286 14.607 0.067797 0.373107 -3.020363
2011-03-16 08:04:35 51°14.298 2°55.278 14.6324 0.067797 0.373107 -3.020363
2011-03-16 08:04:41 51°14.312 2°55.265 14.6356 0.067797 0.373107 -3.020363
2011-03-16 08:04:46 51°14.323 2°55.253 14.7284 0.067797 0.373107 -3.020363
2011-03-16 08:04:51 51°14.334 2°55.242 14.6483 0.067797 0.3731 -3.020363
2011-03-16 08:04:54 51°14.341 2°55.234 14.685 0.067797 0.373107 -3.020363
2011-03-16 08:05:01 51°14.358 2°55.218 14.6383 0.067797 0.373107 -3.020363
2011-03-16 08:05:05 51°14.367 2°55.208 14.5836 0.067797 0.373107 -3.020363
2011-03-16 08:05:10 51°14.378 2°55.195 14.6236 0.067797 0.373107 -3.020363
2011-03-16 08:05:16 51°14.392 2°55.18 14.7087 0.067797 0.373107 -3.020363
2011-03-16 08:05:21 51°14.404 2°55.167 14.6006 0.067797 0.373113 -3.020363
2011-03-16 08:05:26 51°14.415 2°55.153 14.5739 0.067797 0.37312 -3.020363
2011-03-16 08:05:31 51°14.427 2°55.14 14.5868 0.067797 0.37312 -3.020363
2011-03-16 08:05:36 51°14.439 2°55.127 14.5923 0.067797 0.37312 -3.020363
2011-03-16 08:05:41 51°14.451 2°55.114 14.5435 0.067797 0.373127 -3.020363
2011-03-16 08:05:46 51°14.463 2°55.1 14.5781 0.067797 0.373127 -3.020363
2011-03-16 08:05:51 51°14.476 2°55.087 14.5132 0.067694 0.372543 -3.020363
2011-03-16 08:05:56 51°14.489 2°55.074 14.5797 0.067694 0.372549 -3.020363
2011-03-16 08:06:01 51°14.502 2°55.061 14.5987 0.067797 0.373133 -3.020363
2011-03-16 08:06:05 51°14.513 2°55.052 14.425 0.067694 0.372556 -3.020363
2011-03-16 08:06:10 51°14.527 2°55.039 14.4133 0.067797 0.373147 -3.020363
2011-03-16 08:06:14 51°14.538 2°55.03 14.3958 0.067797 0.373147 -3.020363
2011-03-16 08:06:21 51°14.558 2°55.013 14.4946 0.067694 0.372556 -3.020363
2011-03-16 08:06:25 51°14.57 2°55.003 14.5016 0.067694 0.372569 -3.020363
2011-03-16 08:06:29 51°14.582 2°54.992 14.3774 0.067694 0.372576 -3.020363
2011-03-16 08:06:36 51°14.602 2°54.973 14.4569 0.067694 0.372576 -3.020363
2011-03-16 08:06:41 51°14.617 2°54.959 14.4683 0.067694 0.372576 -3.020363
2011-03-16 08:06:46 51°14.632 2°54.945 14.4883 0.067694 0.372576 -3.020363
2011-03-16 08:06:51 51°14.647 2°54.931 14.4916 0.067694 0.372589 -3.020363
2011-03-16 08:06:56 51°14.662 2°54.916 14.4162 0.067694 0.372602 -3.020363
2011-03-16 08:07:01 51°14.676 2°54.9 14.3178 0.067694 0.372616 -3.020363
2011-03-16 08:07:06 51°14.69 2°54.884 14.3823 0.067694 0.372622 -3.020363
2011-03-16 08:07:11 51°14.705 2°54.868 14.4657 0.067694 0.372622 -3.020363
2011-03-16 08:07:15 51°14.717 2°54.856 14.3672 0.067694 0.372622 -3.020363
2011-03-16 08:07:21 51°14.734 2°54.837 14.4039 0.067694 0.372629 -3.020363
2011-03-16 08:07:26 51°14.749 2°54.821 14.4409 0.067694 0.372629 -3.020363
2011-03-16 08:07:31 51°14.763 2°54.804 14.3237 0.067694 0.372636 -3.020363
2011-03-16 08:07:35 51°14.775 2°54.791 14.429 0.067694 0.372642 -3.020363
2011-03-16 08:07:41 51°14.791 2°54.771 14.3525 0.067694 0.372642 -3.020363
2011-03-16 08:07:46 51°14.805 2°54.753 14.3561 0.067694 0.372642 -3.020363
2011-03-16 08:07:51 51°14.819 2°54.735 14.4172 0.067694 0.372642 -3.020363
2011-03-16 08:07:56 51°14.833 2°54.718 14.3867 0.067694 0.372656 -3.020363
2011-03-16 08:08:01 51°14.847 2°54.701 14.3894 0.067694 0.372669 -3.020363
2011-03-16 08:08:06 51°14.862 2°54.685 14.2903 0.067694 0.372676 -3.020363
2011-03-16 08:08:10 51°14.874 2°54.672 14.3935 0.067694 0.372689 -3.020363
2011-03-16 08:08:16 51°14.891 2°54.652 14.387 0.067694 0.372689 -3.020363
2011-03-16 08:08:21 51°14.906 2°54.636 14.3988 0.067694 0.372695 -3.020363
2011-03-16 08:08:26 51°14.921 2°54.619 14.3825 0.067694 0.372709 -3.020363
2011-03-16 08:08:30 51°14.932 2°54.606 14.3501 0.067694 0.372715 -3.020363
2011-03-16 08:08:35 51°14.947 2°54.59 14.4006 0.067694 0.372722 -3.020363
2011-03-16 08:08:41 51°14.965 2°54.57 14.3117 0.067694 0.372729 -3.020363
2011-03-16 08:08:46 51°14.98 2°54.554 14.3824 0.067694 0.372729 -3.020363
2011-03-16 08:08:50 51°14.992 2°54.541 14.4115 0.067694 0.372735 -3.020363
2011-03-16 08:08:56 51°15.009 2°54.522 14.3519 0.067694 0.372742 -3.020363
2011-03-16 08:09:01 51°15.024 2°54.505 14.3456 0.067694 0.372762 -3.020363
2011-03-16 08:09:06 51°15.038 2°54.489 14.3966 0.067694 0.372762 -3.020363
2011-03-16 08:09:11 51°15.052 2°54.472 14.342 0.067694 0.372775 -3.020363
2011-03-16 08:09:16 51°15.066 2°54.456 14.2971 0.067694 0.372775 -3.020363
2011-03-16 08:09:21 51°15.081 2°54.438 14.3467 0.067694 0.372789 -3.020363
2011-03-16 08:09:26 51°15.095 2°54.422 14.3742 0.067694 0.372795 -3.020363
2011-03-16 08:09:31 51°15.108 2°54.404 14.3282 0.067694 0.372802 -3.020363
2011-03-16 08:09:36 51°15.122 2°54.387 14.3044 0.067694 0.372822 -3.020363
2011-03-16 08:09:41 51°15.136 2°54.369 14.3938 0.067694 0.372822 -3.020363
2011-03-16 08:09:46 51°15.15 2°54.353 14.337 0.067694 0.372822 -3.020363
2011-03-16 08:09:51 51°15.164 2°54.335 14.3618 0.067694 0.372835 -3.020363
2011-03-16 08:09:56 51°15.178 2°54.318 14.2989 0.067694 0.372842 -3.020363
2011-03-16 08:10:01 51°15.192 2°54.301 14.3206 0.067694 0.372855 -3.020363
2011-03-16 08:10:06 51°15.206 2°54.284 14.3116 0.067694 0.372869 -3.020363
2011-03-16 08:10:10 51°15.217 2°54.271 14.3562 0.067694 0.372869 -3.020363
2011-03-16 08:10:16 51°15.234 2°54.251 14.3643 0.067694 0.372869 -3.020363
2011-03-16 08:10:21 51°15.248 2°54.233 14.378 0.067694 0.372882 -3.020363
2011-03-16 08:10:26 51°15.262 2°54.216 14.3376 0.067694 0.372889 -3.020363
2011-03-16 08:10:30 51°15.273 2°54.202 14.295 0.067694 0.372895 -3.020363
2011-03-16 08:10:36 51°15.29 2°54.181 14.2708 0.067694 0.372909 -3.020363
2011-03-16 08:10:41 51°15.304 2°54.164 14.3441 0.067694 0.372915 -3.020363
2011-03-16 08:10:46 51°15.318 2°54.147 14.3413 0.067694 0.372915 -3.020363
2011-03-16 08:10:50 51°15.329 2°54.133 14.3452 0.067694 0.372928 -3.020363
2011-03-16 08:10:56 51°15.346 2°54.113 14.3711 0.067694 0.372942 -3.020363
2011-03-16 08:11:01 51°15.36 2°54.096 14.3398 0.067694 0.372948 -3.020363
2011-03-16 08:11:06 51°15.375 2°54.079 14.3141 0.067694 0.372962 -3.020363
2011-03-16 08:11:11 51°15.389 2°54.062 14.3504 0.067591 0.372384 -3.020363
2011-03-16 08:11:15 51°15.4 2°54.049 14.3524 0.067591 0.372384 -3.020363
2011-03-16 08:11:21 51°15.417 2°54.028 14.3274 0.067694 0.372975 -3.020363
2011-03-16 08:11:26 51°15.431 2°54.01 14.3885 0.067591 0.372404 -3.020363
2011-03-16 08:11:31 51°15.445 2°53.992 14.3509 0.067591 0.37241 -3.020363
2011-03-16 08:11:36 51°15.458 2°53.975 14.3198 0.067591 0.372417 -3.020363
2011-03-16 08:11:41 51°15.472 2°53.957 14.2959 0.067591 0.37243 -3.020363
2011-03-16 08:11:46 51°15.486 2°53.939 14.3353 0.067591 0.37243 -3.020363
2011-03-16 08:11:51 51°15.5 2°53.921 14.3304 0.067591 0.372444 -3.020363
2011-03-16 08:11:56 51°15.513 2°53.904 14.3351 0.067591 0.37245 -3.020363
2011-03-16 08:12:01 51°15.527 2°53.886 14.3454 0.067591 0.372463 -3.020363
2011-03-16 08:12:06 51°15.541 2°53.868 14.2888 0.067591 0.372477 -3.020363
2011-03-16 08:12:11 51°15.555 2°53.85 14.3006 0.067591 0.372483 -3.020363
2011-03-16 08:12:16 51°15.568 2°53.831 14.3395 0.067591 0.372483 -3.020363
2011-03-16 08:12:21 51°15.582 2°53.813 14.3574 0.067591 0.372497 -3.020363
2011-03-16 08:12:26 51°15.596 2°53.795 14.3555 0.067591 0.372503 -3.020363
2011-03-16 08:12:29 51°15.604 2°53.784 14.3414 0.067591 0.372517 -3.020363
2011-03-16 08:12:36 51°15.623 2°53.759 14.2938 0.067591 0.372523 -3.020363
2011-03-16 08:12:40 51°15.635 2°53.745 14.3088 0.067591 0.372543 -3.020363
2011-03-16 08:12:45 51°15.648 2°53.727 14.3492 0.067591 0.372543 -3.020363
2011-03-16 08:12:49 51°15.659 2°53.712 14.329 0.067591 0.372543 -3.020363
2011-03-16 08:12:56 51°15.678 2°53.687 14.3433 0.067591 0.372557 -3.020363
2011-03-16 08:13:01 51°15.692 2°53.67 14.3028 0.067591 0.372563 -3.020363
2011-03-16 08:13:05 51°15.703 2°53.655 14.3368 0.067591 0.372577 -3.020363
2011-03-16 08:13:09 51°15.714 2°53.641 14.3413 0.067591 0.37259 -3.020363
2011-03-16 08:13:16 51°15.733 2°53.616 14.3032 0.067591 0.37259 -3.020363
2011-03-16 08:13:21 51°15.747 2°53.598 14.3486 0.067591 0.372603 -3.020363
2011-03-16 08:13:25 51°15.758 2°53.583 14.3372 0.067591 0.37261 -3.020363
2011-03-16 08:13:31 51°15.774 2°53.562 14.3515 0.067591 0.372623 -3.020363
2011-03-16 08:13:35 51°15.786 2°53.549 14.3297 0.067591 0.372637 -3.020363
2011-03-16 08:13:41 51°15.802 2°53.527 14.323 0.067591 0.37265 -3.020363
2011-03-16 08:13:45 51°15.813 2°53.513 14.3336 0.067591 0.37265 -3.020363
2011-03-16 08:13:50 51°15.827 2°53.495 14.3429 0.067591 0.372657 -3.020363
2011-03-16 08:13:55 51°15.841 2°53.478 14.2981 0.067591 0.372663 -3.020363
2011-03-16 08:14:01 51°15.859 2°53.459 14.3549 0.067591 0.372663 -3.020363
2011-03-16 08:14:06 51°15.874 2°53.443 14.3002 0.067591 0.372677 -3.020363
2011-03-16 08:14:11 51°15.889 2°53.428 14.3501 0.067591 0.37269 -3.020363
2011-03-16 08:14:16 51°15.904 2°53.414 14.3447 0.067591 0.37269 -3.020363
2011-03-16 08:14:21 51°15.92 2°53.4 14.3186 0.067591 0.372703 -3.020363
2011-03-16 08:14:25 51°15.932 2°53.389 14.3065 0.067591 0.37271 -3.020363
2011-03-16 08:14:30 51°15.948 2°53.376 14.3707 0.067591 0.372723 -3.020363
2011-03-16 08:14:36 51°15.967 2°53.36 14.3296 0.067591 0.37273 -3.020363
2011-03-16 08:14:41 51°15.983 2°53.347 14.3455 0.067591 0.372743 -3.020363
2011-03-16 08:14:46 51°15.999 2°53.334 14.3628 0.067591 0.372743 -3.020363
2011-03-16 08:14:50 51°16.012 2°53.324 14.3534 0.067591 0.372757 -3.020363
2011-03-16 08:14:56 51°16.031 2°53.307 14.3426 0.067591 0.372763 -3.020363
2011-03-16 08:15:01 51°16.047 2°53.294 14.3611 0.067591 0.372777 -3.020363
2011-03-16 08:15:06 51°16.062 2°53.28 14.3507 0.067591 0.37279 -3.020363
2011-03-16 08:15:10 51°16.075 2°53.269 14.3636 0.067591 0.372797 -3.020363
2011-03-16 08:15:16 51°16.094 2°53.253 14.3196 0.067591 0.372797 -3.020363
2011-03-16 08:15:21 51°16.11 2°53.239 14.354 0.067591 0.37281 -3.020363
2011-03-16 08:15:26 51°16.126 2°53.226 14.3653 0.067489 0.372238 -3.020363
2011-03-16 08:15:31 51°16.142 2°53.213 14.3238 0.067591 0.372837 -3.020363
2011-03-16 08:15:35 51°16.155 2°53.202 14.3456 0.067591 0.37285 -3.020363
2011-03-16 08:15:41 51°16.174 2°53.186 14.3271 0.067489 0.372278 -3.020363
2011-03-16 08:15:46 51°16.19 2°53.173 14.3371 0.067489 0.372278 -3.020363
2011-03-16 08:15:51 51°16.206 2°53.16 14.3568 0.067489 0.372291 -3.020363
2011-03-16 08:15:55 51°16.218 2°53.149 14.3213 0.067489 0.372298 -3.020363
2011-03-16 08:16:01 51°16.237 2°53.133 14.3565 0.067489 0.372311 -3.020363
2011-03-16 08:16:06 51°16.254 2°53.12 14.3729 0.067489 0.372318 -3.020363
2011-03-16 08:16:11 51°16.269 2°53.106 14.3299 0.067489 0.372324 -3.020363
2011-03-16 08:16:16 51°16.285 2°53.093 14.3461 0.067489 0.372324 -3.020363
2011-03-16 08:16:21 51°16.301 2°53.08 14.3705 0.067489 0.372331 -3.020363
2011-03-16 08:16:26 51°16.317 2°53.067 14.3754 0.067489 0.372344 -3.020363
2011-03-16 08:16:31 51°16.333 2°53.054 14.3395 0.067489 0.372351 -3.020363
2011-03-16 08:16:36 51°16.349 2°53.04 14.359 0.067489 0.372364 -3.020363
2011-03-16 08:16:41 51°16.364 2°53.027 14.3455 0.067489 0.372378 -3.020363
2011-03-16 08:16:45 51°16.377 2°53.016 14.3624 0.067489 0.372378 -3.020363
2011-03-16 08:16:49 51°16.39 2°53.006 14.3643 0.067489 0.372391 -3.020363
2011-03-16 08:16:56 51°16.412 2°52.988 14.3363 0.067489 0.372404 -3.020363
2011-03-16 08:17:01 51°16.428 2°52.974 14.3823 0.067489 0.372418 -3.020363
2011-03-16 08:17:06 51°16.443 2°52.961 14.3526 0.067489 0.372424 -3.020363
2011-03-16 08:17:10 51°16.456 2°52.951 14.3779 0.067489 0.372438 -3.020363
2011-03-16 08:17:16 51°16.474 2°52.935 14.3837 0.067489 0.372438 -3.020363
2011-03-16 08:17:21 51°16.49 2°52.922 14.3282 0.067489 0.372451 -3.020363
2011-03-16 08:17:26 51°16.506 2°52.909 14.3592 0.067489 0.372458 -3.020363
2011-03-16 08:17:30 51°16.519 2°52.9 14.3565 0.067489 0.372471 -3.020363
2011-03-16 08:17:36 51°16.538 2°52.885 14.3833 0.067489 0.372478 -3.020363
2011-03-16 08:17:41 51°16.555 2°52.874 14.3609 0.067489 0.372491 -3.020363
2011-03-16 08:17:46 51°16.571 2°52.863 14.3746 0.067489 0.372491 -3.020363
2011-03-16 08:17:50 51°16.584 2°52.854 14.3774 0.067489 0.372504 -3.020363
2011-03-16 08:17:56 51°16.604 2°52.842 14.3743 0.067489 0.372511 -3.020363
2011-03-16 08:18:00 51°16.618 2°52.834 14.364 0.067489 0.372518 -3.020363
2011-03-16 08:18:06 51°16.638 2°52.822 14.3711 0.067489 0.372531 -3.020363
2011-03-16 08:18:11 51°16.655 2°52.814 14.3933 0.067489 0.372551 -3.020363
2011-03-16 08:18:14 51°16.665 2°52.808 14.3411 0.067489 0.372551 -3.020363
2011-03-16 08:18:21 51°16.689 2°52.796 14.3569 0.067489 0.372558 -3.020363
2011-03-16 08:18:26 51°16.706 2°52.788 14.3825 0.067489 0.372571 -3.020363
2011-03-16 08:18:31 51°16.723 2°52.779 14.382 0.067489 0.372585 -3.020363
2011-03-16 08:18:35 51°16.736 2°52.773 14.3914 0.067489 0.372598 -3.020363
2011-03-16 08:18:41 51°16.756 2°52.763 14.3616 0.067489 0.372605 -3.020363
2011-03-16 08:18:46 51°16.774 2°52.754 14.3885 0.067489 0.372605 -3.020363
2011-03-16 08:18:51 51°16.791 2°52.746 14.3748 0.067489 0.372625 -3.020363
2011-03-16 08:18:56 51°16.808 2°52.737 14.4076 0.067489 0.372631 -3.020363
2011-03-16 08:19:01 51°16.825 2°52.729 14.3919 0.067489 0.372651 -3.020363
2011-03-16 08:19:06 51°16.842 2°52.721 14.3583 0.067489 0.372665 -3.020363
2011-03-16 08:19:09 51°16.852 2°52.716 14.3633 0.067489 0.372678 -3.020363
2011-03-16 08:19:16 51°16.876 2°52.703 14.3968 0.067489 0.372678 -3.020363
2011-03-16 08:19:21 51°16.893 2°52.694 14.4022 0.067489 0.372685 -3.020363
2011-03-16 08:19:26 51°16.91 2°52.686 14.3625 0.067489 0.372698 -3.020363
2011-03-16 08:19:30 51°16.924 2°52.679 14.3961 0.067489 0.372711 -3.020363
2011-03-16 08:19:35 51°16.941 2°52.67 14.3889 0.067489 0.372725 -3.020363
2011-03-16 08:19:41 51°16.962 2°52.66 14.3836 0.067489 0.372738 -3.020363
2011-03-16 08:19:46 51°16.979 2°52.651 14.3877 0.067489 0.372738 -3.020363
2011-03-16 08:19:51 51°16.996 2°52.643 14.3713 0.067489 0.372752 -3.020363
2011-03-16 08:19:55 51°17.01 2°52.636 14.4008 0.067489 0.372758 -3.020363
2011-03-16 08:20:01 51°17.031 2°52.626 14.381 0.067489 0.372772 -3.020363
2011-03-16 08:20:06 51°17.048 2°52.618 14.4067 0.067489 0.372785 -3.020363
2011-03-16 08:20:10 51°17.062 2°52.611 14.394 0.067386 0.372219 -3.020363
2011-03-16 08:20:16 51°17.082 2°52.601 14.4066 0.067386 0.372219 -3.020363
2011-03-16 08:20:21 51°17.099 2°52.592 14.4139 0.067386 0.372219 -3.020363
2011-03-16 08:20:26 51°17.116 2°52.583 14.4007 0.067386 0.372239 -3.020363
2011-03-16 08:20:31 51°17.133 2°52.575 14.4102 0.067386 0.372252 -3.020363
2011-03-16 08:20:36 51°17.151 2°52.567 14.3982 0.067386 0.372265 -3.020363
2011-03-16 08:20:41 51°17.168 2°52.559 14.4044 0.067386 0.372279 -3.020363
2011-03-16 08:20:46 51°17.186 2°52.552 14.3887 0.067386 0.372279 -3.020363
2011-03-16 08:20:51 51°17.203 2°52.545 14.3983 0.067386 0.372292 -3.020363
2011-03-16 08:20:55 51°17.217 2°52.538 14.3903 0.067386 0.372305 -3.020363
2011-03-16 08:21:01 51°17.238 2°52.529 14.3906 0.067386 0.372319 -3.020363
2011-03-16 08:21:06 51°17.255 2°52.521 14.4195 0.067386 0.372332 -3.020363
2011-03-16 08:21:10 51°17.269 2°52.515 14.4039 0.067386 0.372345 -3.020363
2011-03-16 08:21:16 51°17.29 2°52.506 14.4116 0.067386 0.372345 -3.020363
2011-03-16 08:21:21 51°17.307 2°52.499 14.4184 0.067386 0.372352 -3.020363
2011-03-16 08:21:26 51°17.325 2°52.491 14.3894 0.067386 0.372366 -3.020363
2011-03-16 08:21:30 51°17.339 2°52.485 14.3869 0.067386 0.372386 -3.020363
2011-03-16 08:21:36 51°17.36 2°52.476 14.4033 0.067386 0.372392 -3.020363
2011-03-16 08:21:41 51°17.377 2°52.47 14.3834 0.067386 0.372412 -3.020363
2011-03-16 08:21:46 51°17.395 2°52.464 14.4029 0.067386 0.372412 -3.020363
2011-03-16 08:21:50 51°17.41 2°52.461 14.4055 0.067386 0.372419 -3.020363
2011-03-16 08:21:56 51°17.432 2°52.456 14.4007 0.067386 0.372439 -3.020363
2011-03-16 08:22:01 51°17.45 2°52.453 14.4022 0.067386 0.372459 -3.020363
2011-03-16 08:22:06 51°17.468 2°52.45 14.4103 0.067386 0.372472 -3.020363
2011-03-16 08:22:10 51°17.483 2°52.449 14.4296 0.067386 0.372486 -3.020363
2011-03-16 08:22:14 51°17.498 2°52.447 14.3882 0.067386 0.372486 -3.020363
2011-03-16 08:22:21 51°17.524 2°52.445 14.4198 0.067386 0.372492 -3.020363
2011-03-16 08:22:25 51°17.538 2°52.444 14.4211 0.067386 0.372506 -3.020363
2011-03-16 08:22:30 51°17.557 2°52.444 14.419 0.067386 0.372519 -3.020363
2011-03-16 08:22:34 51°17.572 2°52.444 14.4073 0.067386 0.372539 -3.020363
2011-03-16 08:22:41 51°17.597 2°52.444 14.4303 0.067386 0.372553 -3.020363
2011-03-16 08:22:46 51°17.616 2°52.444 14.4315 0.067386 0.372553 -3.020363
2011-03-16 08:22:50 51°17.63 2°52.444 14.4047 0.067386 0.372566 -3.020363
2011-03-16 08:22:56 51°17.652 2°52.445 14.4165 0.067386 0.372586 -3.020363
2011-03-16 08:23:01 51°17.671 2°52.445 14.4189 0.067386 0.372599 -3.020363
2011-03-16 08:23:05 51°17.686 2°52.445 14.4273 0.067386 0.372613 -3.020363
2011-03-16 08:23:10 51°17.704 2°52.445 14.4111 0.067386 0.372633 -3.020363
2011-03-16 08:23:16 51°17.726 2°52.445 14.431 0.067386 0.372633 -3.020363
2011-03-16 08:23:21 51°17.745 2°52.446 14.4328 0.067386 0.372646 -3.020363
2011-03-16 08:23:26 51°17.763 2°52.446 14.4268 0.067386 0.37266 -3.020363
2011-03-16 08:23:30 51°17.778 2°52.446 14.4117 0.067386 0.37268 -3.020363
2011-03-16 08:23:36 51°17.8 2°52.445 14.4479 0.067386 0.372693 -3.020363
2011-03-16 08:23:41 51°17.819 2°52.445 14.4432 0.067283 0.372119 -3.020363
2011-03-16 08:23:45 51°17.833 2°52.445 14.4489 0.067283 0.372119 -3.020363
2011-03-16 08:23:49 51°17.848 2°52.445 14.4312 0.067386 0.37272 -3.020363
2011-03-16 08:23:56 51°17.874 2°52.445 14.4373 0.067283 0.372146 -3.020363
2011-03-16 08:24:01 51°17.892 2°52.445 14.4264 0.067386 0.372747 -3.020363
2011-03-16 08:24:06 51°17.91 2°52.445 14.4162 0.067386 0.372767 -3.020363
2011-03-16 08:24:10 51°17.925 2°52.444 14.4485 0.067283 0.372186 -3.020363
2011-03-16 08:24:16 51°17.947 2°52.445 14.4431 0.067283 0.372186 -3.020363
2011-03-16 08:24:21 51°17.965 2°52.445 14.4414 0.067283 0.372206 -3.020363
2011-03-16 08:24:26 51°17.983 2°52.445 14.4427 0.067283 0.37222 -3.020363
2011-03-16 08:24:30 51°17.998 2°52.445 14.4225 0.067283 0.37224 -3.020363
2011-03-16 08:24:36 51°18.02 2°52.444 14.4414 0.067283 0.372253 -3.020363
2011-03-16 08:24:41 51°18.038 2°52.444 14.4414 0.067283 0.372267 -3.020363
2011-03-16 08:24:45 51°18.053 2°52.444 14.4512 0.067283 0.372267 -3.020363
2011-03-16 08:24:51 51°18.075 2°52.443 14.4559 0.067283 0.37228 -3.020363
2011-03-16 08:24:55 51°18.089 2°52.443 14.4284 0.067283 0.372293 -3.020363
2011-03-16 08:25:01 51°18.111 2°52.443 14.4443 0.067283 0.372307 -3.020363
2011-03-16 08:25:06 51°18.129 2°52.443 14.4438 0.067283 0.37232 -3.020363
2011-03-16 08:25:10 51°18.144 2°52.443 14.4468 0.067283 0.37234 -3.020363
2011-03-16 08:25:16 51°18.166 2°52.443 14.4297 0.067283 0.37234 -3.020363
2011-03-16 08:25:21 51°18.184 2°52.442 14.4577 0.067283 0.37236 -3.020363
2011-03-16 08:25:26 51°18.203 2°52.442 14.4505 0.067283 0.372374 -3.020363
2011-03-16 08:25:31 51°18.221 2°52.442 14.4631 0.067283 0.372387 -3.020363
2011-03-16 08:25:36 51°18.239 2°52.441 14.4524 0.067283 0.3724 -3.020363
2011-03-16 08:25:41 51°18.257 2°52.441 14.4488 0.067283 0.37242 -3.020363
2011-03-16 08:25:46 51°18.275 2°52.44 14.4393 0.067283 0.37242 -3.020363
2011-03-16 08:25:50 51°18.29 2°52.44 14.4628 0.067283 0.372434 -3.020363
2011-03-16 08:25:56 51°18.311 2°52.439 14.4492 0.067283 0.372454 -3.020363
2011-03-16 08:26:01 51°18.33 2°52.439 14.464 0.067283 0.372467 -3.020363
2011-03-16 08:26:06 51°18.348 2°52.44 14.4586 0.067283 0.372481 -3.020363
2011-03-16 08:26:10 51°18.363 2°52.44 14.4482 0.067283 0.372501 -3.020363
2011-03-16 08:26:16 51°18.385 2°52.442 14.4591 0.067283 0.372501 -3.020363
2011-03-16 08:26:21 51°18.403 2°52.443 14.4452 0.067283 0.372514 -3.020363
2011-03-16 08:26:26 51°18.422 2°52.444 14.4478 0.067283 0.372528 -3.020363
2011-03-16 08:26:30 51°18.436 2°52.446 14.475 0.067283 0.372548 -3.020363
2011-03-16 08:26:36 51°18.459 2°52.447 14.4575 0.067283 0.372561 -3.020363
2011-03-16 08:26:41 51°18.477 2°52.448 14.4642 0.06718 0.371993 -3.020363
2011-03-16 08:26:46 51°18.495 2°52.449 14.4743 0.06718 0.371993 -3.020363
2011-03-16 08:26:51 51°18.514 2°52.45 14.4698 0.067283 0.372595 -3.020363
2011-03-16 08:26:56 51°18.532 2°52.45 14.4525 0.06718 0.37202 -3.020363
2011-03-16 08:27:01 51°18.551 2°52.451 14.4695 0.067283 0.372628 -3.020363
2011-03-16 08:27:06 51°18.569 2°52.452 14.4772 0.06718 0.372054 -3.020363
2011-03-16 08:27:11 51°18.587 2°52.452 14.4524 0.06718 0.372074 -3.020363
2011-03-16 08:27:15 51°18.602 2°52.452 14.4637 0.06718 0.372074 -3.020363
2011-03-16 08:27:21 51°18.624 2°52.453 14.4759 0.06718 0.372087 -3.020363
2011-03-16 08:27:26 51°18.642 2°52.453 14.4739 0.06718 0.372107 -3.020363
2011-03-16 08:27:31 51°18.66 2°52.454 14.4489 0.06718 0.372121 -3.020363
2011-03-16 08:27:35 51°18.675 2°52.455 14.4672 0.06718 0.372147 -3.020363
2011-03-16 08:27:41 51°18.697 2°52.456 14.4914 0.06718 0.372161 -3.020363
2011-03-16 08:27:46 51°18.715 2°52.458 14.4735 0.06718 0.372161 -3.020363
2011-03-16 08:27:50 51°18.73 2°52.458 14.4702 0.06718 0.372188 -3.020363
2011-03-16 08:27:56 51°18.752 2°52.46 14.4725 0.06718 0.372208 -3.020363
2011-03-16 08:28:01 51°18.77 2°52.461 14.4811 0.06718 0.372228 -3.020363
2011-03-16 08:28:06 51°18.789 2°52.462 14.4727 0.06718 0.372248 -3.020363
2011-03-16 08:28:10 51°18.803 2°52.463 14.4843 0.06718 0.372268 -3.020363
2011-03-16 08:28:16 51°18.825 2°52.464 14.4849 0.06718 0.372268 -3.020363
2011-03-16 08:28:20 51°18.84 2°52.465 14.4742 0.06718 0.372295 -3.020363
2011-03-16 08:28:26 51°18.862 2°52.465 14.4821 0.06718 0.372315 -3.020363
2011-03-16 08:28:30 51°18.876 2°52.466 14.4793 0.06718 0.372342 -3.020363
2011-03-16 08:28:35 51°18.894 2°52.466 14.4687 0.06718 0.372362 -3.020363
2011-03-16 08:28:41 51°18.916 2°52.467 14.4879 0.06718 0.372382 -3.020363
2011-03-16 08:28:46 51°18.935 2°52.468 14.4891 0.06718 0.372382 -3.020363
2011-03-16 08:28:51 51°18.953 2°52.469 14.4948 0.06718 0.372402 -3.020363
2011-03-16 08:28:55 51°18.967 2°52.469 14.4897 0.06718 0.372429 -3.020363
2011-03-16 08:29:00 51°18.986 2°52.47 14.4981 0.06718 0.372442 -3.020363
2011-03-16 08:29:06 51°19.008 2°52.471 14.4771 0.06718 0.372463 -3.020363
2011-03-16 08:29:09 51°19.019 2°52.471 14.4921 0.06718 0.372483 -3.020363
2011-03-16 08:29:16 51°19.044 2°52.472 14.4959 0.06718 0.372483 -3.020363
2011-03-16 08:29:21 51°19.063 2°52.473 14.5058 0.06718 0.372503 -3.020363
2011-03-16 08:29:26 51°19.081 2°52.473 14.4839 0.06718 0.372516 -3.020363
2011-03-16 08:29:30 51°19.096 2°52.474 14.4948 0.06718 0.37253 -3.020363
2011-03-16 08:29:36 51°19.117 2°52.475 14.4965 0.06718 0.37255 -3.020363
2011-03-16 08:29:41 51°19.136 2°52.476 14.4995 0.06718 0.37257 -3.020363
2011-03-16 08:29:46 51°19.154 2°52.477 14.4922 0.06718 0.37257 -3.020363
2011-03-16 08:29:51 51°19.172 2°52.478 14.5036 0.06718 0.372583 -3.020363
2011-03-16 08:29:55 51°19.187 2°52.479 14.5029 0.06718 0.372604 -3.020363
2011-03-16 08:30:01 51°19.209 2°52.479 14.5014 0.067077 0.372028 -3.020363
2011-03-16 08:30:06 51°19.228 2°52.481 14.5014 0.06718 0.372644 -3.020363
2011-03-16 08:30:10 51°19.242 2°52.481 14.4929 0.06718 0.372657 -3.020363
2011-03-16 08:30:16 51°19.265 2°52.482 14.5116 0.06718 0.372657 -3.020363
2011-03-16 08:30:21 51°19.283 2°52.483 14.5089 0.06718 0.372684 -3.020363
2011-03-16 08:30:25 51°19.298 2°52.484 14.5121 0.067077 0.372115 -3.020363
2011-03-16 08:30:30 51°19.316 2°52.485 14.5028 0.067077 0.372136 -3.020363
2011-03-16 08:30:36 51°19.338 2°52.485 14.5197 0.067077 0.372156 -3.020363
2011-03-16 08:30:41 51°19.357 2°52.485 14.5138 0.067077 0.372176 -3.020363
2011-03-16 08:30:46 51°19.375 2°52.486 14.5156 0.067077 0.372176 -3.020363
2011-03-16 08:30:50 51°19.39 2°52.486 14.5224 0.067077 0.372203 -3.020363
2011-03-16 08:30:56 51°19.412 2°52.486 14.5209 0.067077 0.372223 -3.020363
2011-03-16 08:31:01 51°19.43 2°52.487 14.5091 0.067077 0.372236 -3.020363
2011-03-16 08:31:06 51°19.449 2°52.487 14.5218 0.067077 0.372256 -3.020363
2011-03-16 08:31:10 51°19.464 2°52.488 14.5126 0.067077 0.372277 -3.020363
2011-03-16 08:31:15 51°19.482 2°52.488 14.5169 0.067077 0.372277 -3.020363
2011-03-16 08:31:21 51°19.504 2°52.489 14.5185 0.067077 0.372297 -3.020363
2011-03-16 08:31:26 51°19.523 2°52.49 14.5295 0.067077 0.372317 -3.020363
2011-03-16 08:31:31 51°19.541 2°52.49 14.5291 0.067077 0.372337 -3.020363
2011-03-16 08:31:34 51°19.552 2°52.49 14.5175 0.067077 0.37235 -3.020363
2011-03-16 08:31:41 51°19.578 2°52.491 14.5181 0.067077 0.372371 -3.020363
2011-03-16 08:31:46 51°19.596 2°52.491 14.5267 0.067077 0.372371 -3.020363
2011-03-16 08:31:51 51°19.615 2°52.491 14.5235 0.067077 0.372391 -3.020363
2011-03-16 08:31:56 51°19.633 2°52.491 14.5184 0.067077 0.372411 -3.020363
2011-03-16 08:32:01 51°19.652 2°52.492 14.5347 0.067077 0.372424 -3.020363
2011-03-16 08:32:06 51°19.67 2°52.492 14.5186 0.067077 0.372451 -3.020363
2011-03-16 08:32:11 51°19.688 2°52.492 14.5288 0.067077 0.372471 -3.020363
2011-03-16 08:32:16 51°19.707 2°52.492 14.5356 0.067077 0.372471 -3.020363
2011-03-16 08:32:21 51°19.725 2°52.492 14.5332 0.067077 0.372492 -3.020363
2011-03-16 08:32:26 51°19.743 2°52.492 14.5269 0.067077 0.372512 -3.020363
2011-03-16 08:32:30 51°19.758 2°52.493 14.5207 0.067077 0.372525 -3.020363
2011-03-16 08:32:36 51°19.781 2°52.493 14.5442 0.067077 0.372545 -3.020363
2011-03-16 08:32:41 51°19.799 2°52.493 14.5275 0.067077 0.372566 -3.020363
2011-03-16 08:32:46 51°19.817 2°52.494 14.5393 0.067077 0.372566 -3.020363
2011-03-16 08:32:50 51°19.832 2°52.494 14.5358 0.067077 0.372586 -3.020363
2011-03-16 08:32:56 51°19.854 2°52.495 14.5398 0.067077 0.372599 -3.020363
2011-03-16 08:33:01 51°19.873 2°52.495 14.5467 0.067077 0.37262 -3.020363
2011-03-16 08:33:06 51°19.891 2°52.496 14.5409 0.066975 0.37205 -3.020363
2011-03-16 08:33:10 51°19.906 2°52.496 14.5461 0.067077 0.37266 -3.020363
2011-03-16 08:33:16 51°19.928 2°52.497 14.5311 0.067077 0.37266 -3.020363
2011-03-16 08:33:21 51°19.947 2°52.497 14.5485 0.067077 0.37268 -3.020363
2011-03-16 08:33:26 51°19.965 2°52.497 14.5312 0.066975 0.37211 -3.020363
2011-03-16 08:33:30 51°19.98 2°52.497 14.5317 0.066975 0.372131 -3.020363
2011-03-16 08:33:35 51°19.998 2°52.498 14.5433 0.066975 0.372151 -3.020363
2011-03-16 08:33:41 51°20.021 2°52.498 14.5344 0.067077 0.372761 -3.020363
2011-03-16 08:33:46 51°20.039 2°52.498 11.2845 0.067077 0.372761 -3.020363
2011-03-16 08:33:51 51°20.057 2°52.498 8.3168 0.224103 1.325828 -3.020363
2011-03-16 08:33:56 51°20.076 2°52.499 8.1273 0.58018 3.627213 -3.020363
2011-03-16 08:34:01 51°20.094 2°52.499 7.3957 0.348768 2.106877 -3.020363
2011-03-16 08:34:06 51°20.113 2°52.499 6.799 1.930328 13.621307 -3.020363
2011-03-16 08:34:11 51°20.131 2°52.499 6.6302 2.625758 19.841912 -3.020363
2011-03-16 08:34:16 51°20.15 2°52.499 6.5905 2.625758 19.841912 -3.020363
2011-03-16 08:34:21 51°20.168 2°52.499 6.382 2.773369 22.043751 -3.020363
2011-03-16 08:34:26 51°20.187 2°52.499 6.2748 3.180131 27.051164 -3.020363
2011-03-16 08:34:31 51°20.205 2°52.5 6.2314 3.394875 30.159482 -3.020363
2011-03-16 08:34:36 51°20.224 2°52.5 6.1939 3.426871 31.399665 -3.020363
2011-03-16 08:34:41 51°20.243 2°52.5 6.133 3.389412 31.940845 -3.020363
2011-03-16 08:34:46 51°20.261 2°52.5 6.1266 3.389412 31.940845 -3.020363
2011-03-16 08:34:50 51°20.275 2°52.5 6.1783 3.345223 31.943519 -3.020363
2011-03-16 08:34:56 51°20.298 2°52.5 6.1013 3.298242 31.822806 -3.020363
2011-03-16 08:35:01 51°20.316 2°52.499 6.0527 3.281481 31.961815 -3.020363
2011-03-16 08:35:06 51°20.335 2°52.499 5.9936 3.249715 31.850563 -3.020363
2011-03-16 08:35:10 51°20.349 2°52.499 5.9944 3.229228 31.766051 -3.020363
2011-03-16 08:35:16 51°20.372 2°52.499 5.9925 3.229228 31.766051 -3.020363
2011-03-16 08:35:21 51°20.39 2°52.499 5.9993 3.218365 31.733309 -3.020363
2011-03-16 08:35:25 51°20.405 2°52.5 5.9877 3.204914 31.666954 -3.020363
2011-03-16 08:35:30 51°20.423 2°52.501 5.9608 3.195086 31.622694 -3.020363
2011-03-16 08:35:36 51°20.446 2°52.502 5.9304 3.188154 31.616206 -3.020363
2011-03-16 08:35:41 51°20.464 2°52.502 5.9372 3.183085 31.60231 -3.020363
2011-03-16 08:35:46 51°20.483 2°52.502 5.9258 3.183085 31.60231 -3.020363
2011-03-16 08:35:50 51°20.498 2°52.502 5.9182 3.177602 31.577739 -3.020363
2011-03-16 08:35:55 51°20.516 2°52.502 5.9103 3.173671 31.580693 -3.020363
2011-03-16 08:36:01 51°20.538 2°52.503 5.9157 3.170361 31.569538 -3.020363
2011-03-16 08:36:06 51°20.557 2°52.503 5.8803 3.166429 31.554147 -3.020363
2011-03-16 08:36:10 51°20.572 2°52.503 5.8718 3.164774 31.561238 -3.020363
2011-03-16 08:36:15 51°20.59 2°52.503 5.8647 3.164774 31.561238 -3.020363
2011-03-16 08:36:21 51°20.612 2°52.504 5.8676 3.164671 31.580231 -3.020363
2011-03-16 08:36:26 51°20.631 2°52.505 5.8688 3.162706 31.575162 -3.020363
2011-03-16 08:36:31 51°20.649 2°52.505 5.8797 3.161257 31.573179 -3.020363
2011-03-16 08:36:36 51°20.668 2°52.505 5.8651 3.160016 31.575238 -3.020363
2011-03-16 08:36:41 51°20.686 2°52.506 5.8586 3.158464 31.582646 -3.020363
2011-03-16 08:36:46 51°20.705 2°52.507 5.8605 3.158464 31.582646 -3.020363
2011-03-16 08:36:51 51°20.723 2°52.507 5.8563 3.156602 31.577843 -3.020363
2011-03-16 08:36:56 51°20.74 2°52.507 5.8696 3.155257 31.577009 -3.020363
2011-03-16 08:37:01 51°20.757 2°52.507 5.8488 3.154326 31.570212 -3.020363
2011-03-16 08:37:06 51°20.774 2°52.508 5.844 3.152878 31.560319 -3.020363
2011-03-16 08:37:10 51°20.786 2°52.508 5.8558 3.152257 31.556957 -3.020363
2011-03-16 08:37:16 51°20.805 2°52.509 5.8407 3.152257 31.556957 -3.020363
2011-03-16 08:37:21 51°20.82 2°52.51 5.845 3.151016 31.551989 -3.020363
2011-03-16 08:37:26 51°20.834 2°52.511 5.8443 3.150188 31.551607 -3.020363
2011-03-16 08:37:30 51°20.846 2°52.511 5.8413 3.148637 31.535285 -3.020363
2011-03-16 08:37:36 51°20.862 2°52.513 5.8221 3.14905 31.544267 -3.020363
2011-03-16 08:37:41 51°20.876 2°52.514 5.8289 3.148326 31.54679 -3.020363
2011-03-16 08:37:46 51°20.89 2°52.515 5.8387 3.148326 31.54679 -3.020363
2011-03-16 08:37:50 51°20.901 2°52.516 5.8377 3.148533 31.557003 -3.020363
2011-03-16 08:37:56 51°20.917 2°52.518 5.8446 3.147706 31.556623 -3.020363
2011-03-16 08:38:01 51°20.931 2°52.52 5.837 3.148533 31.564045 -3.020363
2011-03-16 08:38:06 51°20.944 2°52.522 5.8328 3.147085 31.558541 -3.020363
2011-03-16 08:38:11 51°20.957 2°52.524 5.8416 3.148016 31.573279 -3.020363
2011-03-16 08:38:15 51°20.967 2°52.526 5.842 3.148016 31.573279 -3.020363
2011-03-16 08:38:21 51°20.983 2°52.528 5.8439 3.149879 31.595713 -3.020363
2011-03-16 08:38:26 51°20.996 2°52.531 5.8297 3.150292 31.601189 -3.020363
2011-03-16 08:38:31 51°21.009 2°52.533 5.8355 3.150706 31.604901 -3.020363
2011-03-16 08:38:36 51°21.022 2°52.535 5.8316 3.151741 31.621682 -3.020363
2011-03-16 08:38:41 51°21.035 2°52.538 5.8273 3.153086 31.639267 -3.020363
2011-03-16 08:38:46 51°21.048 2°52.54 5.8351 3.153086 31.639267 -3.020363
2011-03-16 08:38:51 51°21.061 2°52.542 5.8275 3.153913 31.646692 -3.020363
2011-03-16 08:38:56 51°21.074 2°52.544 5.8342 3.154741 31.657651 -3.020363
2011-03-16 08:39:01 51°21.087 2°52.546 5.8373 3.155362 31.668966 -3.020363
2011-03-16 08:39:06 51°21.1 2°52.548 5.8279 3.155155 31.670205 -3.020363
2011-03-16 08:39:11 51°21.113 2°52.551 5.8388 3.155776 31.681525 -3.020363
2011-03-16 08:39:16 51°21.126 2°52.553 5.8399 3.155776 31.681525 -3.020363
2011-03-16 08:39:21 51°21.139 2°52.555 5.8368 3.1565 31.690458 -3.020363
2011-03-16 08:39:26 51°21.152 2°52.557 5.8332 3.15681 31.693906 -3.020363
2011-03-16 08:39:30 51°21.162 2°52.559 5.8354 3.156914 31.695941 -3.020363
2011-03-16 08:39:35 51°21.175 2°52.562 5.8392 3.157535 31.705497 -3.020363
2011-03-16 08:39:41 51°21.191 2°52.566 5.8361 3.158466 31.717617 -3.020363
2011-03-16 08:39:46 51°21.204 2°52.569 5.8382 3.158466 31.717617 -3.020363
2011-03-16 08:39:50 51°21.214 2°52.572 5.8399 3.158569 31.718767 -3.020363
2011-03-16 08:39:56 51°21.229 2°52.577 5.8374 3.158673 31.720804 -3.020363
2011-03-16 08:40:01 51°21.242 2°52.581 5.8384 3.158569 31.72054 -3.020363
2011-03-16 08:40:06 51°21.255 2°52.585 5.834 3.15888 31.72399 -3.020363
2011-03-16 08:40:10 51°21.266 2°52.588 5.8405 3.159707 31.73319 -3.020363
2011-03-16 08:40:16 51°21.281 2°52.593 5.8331 3.159707 31.73319 -3.020363
2011-03-16 08:40:21 51°21.294 2°52.598 5.8367 3.159293 31.729476 -3.020363
2011-03-16 08:40:25 51°21.305 2°52.601 5.8303 3.160225 31.739827 -3.020363
2011-03-16 08:40:30 51°21.318 2°52.606 5.8293 3.159811 31.737 -3.020363
2011-03-16 08:40:34 51°21.328 2°52.609 5.8347 3.160121 31.742225 -3.020363
2011-03-16 08:40:41 51°21.346 2°52.615 5.8311 3.160225 31.743375 -3.020363
2011-03-16 08:40:45 51°21.357 2°52.619 5.8335 3.160225 31.743375 -3.020363
2011-03-16 08:40:50 51°21.369 2°52.623 5.83 3.160225 31.743375 -3.020363
2011-03-16 08:40:56 51°21.385 2°52.628 5.8276 3.160535 31.750375 -3.020363
2011-03-16 08:41:01 51°21.398 2°52.631 5.8293 3.160639 31.755075 -3.020363
2011-03-16 08:41:05 51°21.408 2°52.634 5.8319 3.161156 31.761716 -3.020363
2011-03-16 08:41:10 51°21.421 2°52.638 5.8349 3.161777 31.76862 -3.020363
2011-03-16 08:41:16 51°21.437 2°52.643 5.8337 3.161777 31.76862 -3.020363
2011-03-16 08:41:21 51°21.45 2°52.646 5.8375 3.161777 31.769508 -3.020363
2011-03-16 08:41:25 51°21.46 2°52.649 5.8355 3.161777 31.770396 -3.020363
2011-03-16 08:41:29 51°21.47 2°52.653 5.8339 3.161259 31.766418 -3.020363
2011-03-16 08:41:36 51°21.488 2°52.658 5.8305 3.161363 31.767569 -3.020363
2011-03-16 08:41:41 51°21.501 2°52.662 5.8295 3.161259 31.76553 -3.020363
2011-03-16 08:41:45 51°21.511 2°52.666 5.8263 3.161259 31.76553 -3.020363
2011-03-16 08:41:49 51°21.521 2°52.669 5.8404 3.161156 31.764379 -3.020363
2011-03-16 08:41:54 51°21.534 2°52.673 5.8361 3.161259 31.76553 -3.020363
2011-03-16 08:42:01 51°21.552 2°52.679 5.8424 3.161156 31.766155 -3.020363
2011-03-16 08:42:05 51°21.562 2°52.682 5.8356 3.160225 31.755799 -3.020363
2011-03-16 08:42:09 51°21.572 2°52.685 5.8327 3.159708 31.751821 -3.020363
2011-03-16 08:42:16 51°21.59 2°52.69 5.836 3.159708 31.751821 -3.020363
2011-03-16 08:42:21 51°21.603 2°52.694 5.847 3.160018 31.757049 -3.020363
2011-03-16 08:42:26 51°21.616 2°52.698 5.846 3.159604 31.752445 -3.020363
2011-03-16 08:42:30 51°21.626 2°52.701 5.8326 3.158983 31.743765 -3.020363
2011-03-16 08:42:36 51°21.644 2°52.705 5.8359 3.15919 31.745179 -3.020363
2011-03-16 08:42:41 51°21.659 2°52.71 5.8434 3.158052 31.733409 -3.020363
2011-03-16 08:42:45 51°21.672 2°52.713 5.8346 3.158052 31.733409 -3.020363
2011-03-16 08:42:50 51°21.689 2°52.717 5.8365 3.157845 31.731108 -3.020363
2011-03-16 08:42:54 51°21.702 2°52.721 5.8396 3.157638 31.728807 -3.020363
2011-03-16 08:43:01 51°21.727 2°52.727 5.8343 3.157845 31.730221 -3.020363
2011-03-16 08:43:05 51°21.741 2°52.731 5.8277 3.157121 31.722167 -3.020363
2011-03-16 08:43:10 51°21.759 2°52.735 5.8465 3.157431 31.727392 -3.020363
2011-03-16 08:43:14 51°21.774 2°52.739 5.8467 3.157431 31.727392 -3.020363
2011-03-16 08:43:21 51°21.8 2°52.745 5.8429 3.1565 31.717037 -3.020363
2011-03-16 08:43:25 51°21.814 2°52.749 5.8354 3.156293 31.716509 -3.020363
2011-03-16 08:43:29 51°21.829 2°52.753 5.8331 3.156293 31.716509 -3.020363
2011-03-16 08:43:36 51°21.855 2°52.76 5.8358 3.155673 31.710492 -3.020363
2011-03-16 08:43:41 51°21.874 2°52.764 5.8439 3.155466 31.70819 -3.020363
2011-03-16 08:43:46 51°21.893 2°52.769 5.8391 3.155466 31.70819 -3.020363
2011-03-16 08:43:49 51°21.904 2°52.772 5.8454 3.155259 31.70323 -3.020363
2011-03-16 08:43:55 51°21.926 2°52.778 5.8569 3.154638 31.697213 -3.020363
2011-03-16 08:44:01 51°21.949 2°52.784 5.8472 3.154224 31.693497 -3.020363
2011-03-16 08:44:05 51°21.964 2°52.788 5.8489 3.152983 31.682348 -3.020363
2011-03-16 08:44:09 51°21.978 2°52.792 5.846 3.152672 31.678011 -3.020363
2011-03-16 08:44:16 51°22.005 2°52.8 5.8463 3.152672 31.678011 -3.020363
2011-03-16 08:44:21 51°22.023 2°52.805 5.8496 3.152155 31.671373 -3.020363
2011-03-16 08:44:25 51°22.038 2°52.808 5.8485 3.152776 31.675619 -3.020363
2011-03-16 08:44:30 51°22.057 2°52.812 5.8551 3.152569 31.669776 -3.020363
2011-03-16 08:44:36 51°22.079 2°52.817 5.8554 3.152879 31.673227 -3.020363
2011-03-16 08:44:41 51°22.098 2°52.821 5.8588 3.152672 31.671812 -3.020363
2011-03-16 08:44:45 51°22.113 2°52.825 5.8528 3.152672 31.671812 -3.020363
2011-03-16 08:44:50 51°22.131 2°52.829 5.8505 3.152672 31.672697 -3.020363
2011-03-16 08:44:56 51°22.154 2°52.835 5.8534 3.15381 31.685351 -3.020363
2011-03-16 08:45:01 51°22.173 2°52.84 5.8497 3.157225 31.723317 -3.020363
2011-03-16 08:45:06 51°22.191 2°52.845 5.8505 3.159397 31.744818 -3.020363
2011-03-16 08:45:11 51°22.21 2°52.85 5.8521 3.160018 31.749947 -3.020363
2011-03-16 08:45:15 51°22.225 2°52.854 5.8547 3.160018 31.749947 -3.020363
2011-03-16 08:45:21 51°22.248 2°52.86 5.8654 3.16219 31.77411 -3.020363
2011-03-16 08:45:26 51°22.266 2°52.864 5.8587 3.160639 31.757738 -3.020363
2011-03-16 08:45:31 51°22.285 2°52.869 5.8542 3.160121 31.751985 -3.020363
2011-03-16 08:45:36 51°22.304 2°52.874 5.8523 3.159397 31.744818 -3.020363
2011-03-16 08:45:41 51°22.322 2°52.878 5.8551 3.157638 31.726146 -3.020363
2011-03-16 08:45:45 51°22.337 2°52.881 5.8549 3.157638 31.726146 -3.020363
2011-03-16 08:45:50 51°22.356 2°52.886 5.8664 3.155983 31.706851 -3.020363
2011-03-16 08:45:56 51°22.379 2°52.892 5.8604 3.15381 31.680923 -3.020363
2011-03-16 08:46:01 51°22.397 2°52.896 5.8629 3.153293 31.675172 -3.020363
2011-03-16 08:46:06 51°22.416 2°52.901 5.8634 3.151845 31.65907 -3.020363
2011-03-16 08:46:10 51°22.431 2°52.905 5.8625 3.152879 31.671456 -3.020363
2011-03-16 08:46:16 51°22.453 2°52.91 5.8574 3.152879 31.671456 -3.020363
2011-03-16 08:46:21 51°22.472 2°52.914 5.8571 3.150707 31.647303 -3.020363
2011-03-16 08:46:26 51°22.491 2°52.918 5.8586 3.150707 31.646419 -3.020363
2011-03-16 08:46:30 51°22.506 2°52.922 5.8629 3.149569 31.632 -3.020363
2011-03-16 08:46:36 51°22.529 2°52.928 5.864 3.148017 31.614752 -3.020363
2011-03-16 08:46:41 51°22.547 2°52.932 5.8641 3.146258 31.595206 -3.020363
2011-03-16 08:46:46 51°22.566 2°52.937 5.8696 3.146258 31.595206 -3.020363
2011-03-16 08:46:49 51°22.577 2°52.94 5.869 3.14481 31.579993 -3.020363
2011-03-16 08:46:55 51°22.6 2°52.945 5.8732 3.143258 31.562748 -3.020363
2011-03-16 08:47:01 51°22.623 2°52.95 5.8708 3.142534 31.554701 -3.020363
2011-03-16 08:47:06 51°22.641 2°52.955 5.8763 3.142534 31.552937 -3.020363
2011-03-16 08:47:11 51°22.66 2°52.958 5.8737 3.13643 31.485128 -3.020363
2011-03-16 08:47:14 51°22.671 2°52.961 5.8766 3.13643 31.485128 -3.020363
2011-03-16 08:47:21 51°22.698 2°52.967 5.876 3.141913 31.545159 -3.020363
2011-03-16 08:47:26 51°22.716 2°52.971 5.8706 3.142534 31.551174 -3.020363
2011-03-16 08:47:30 51°22.732 2°52.974 5.8723 3.142947 31.55489 -3.020363
2011-03-16 08:47:36 51°22.754 2°52.979 5.8726 3.143154 31.554543 -3.020363
2011-03-16 08:47:41 51°22.773 2°52.983 5.8824 3.144085 31.564005 -3.020363
2011-03-16 08:47:46 51°22.792 2°52.988 5.8778 3.144085 31.564005 -3.020363
2011-03-16 08:47:51 51°22.811 2°52.992 5.8777 3.146154 31.586111 -3.020363
2011-03-16 08:47:56 51°22.829 2°52.997 5.8792 3.147189 31.597605 -3.020363
2011-03-16 08:48:01 51°22.848 2°53.002 5.8829 3.147189 31.597605 -3.020363
2011-03-16 08:48:06 51°22.867 2°53.006 5.8795 3.146154 31.586111 -3.020363
2011-03-16 08:48:10 51°22.882 2°53.009 5.8792 3.144499 31.566838 -3.020363
2011-03-16 08:48:16 51°22.905 2°53.014 5.8892 3.144499 31.566838 -3.020363
2011-03-16 08:48:20 51°22.92 2°53.017 5.891 3.143465 31.553582 -3.020363
2011-03-16 08:48:26 51°22.943 2°53.022 5.8942 3.141809 31.533434 -3.020363
2011-03-16 08:48:29 51°22.954 2°53.025 5.8912 3.141085 31.526272 -3.020363
2011-03-16 08:48:36 51°22.98 2°53.031 5.8976 3.139947 31.512753 -3.020363
2011-03-16 08:48:41 51°22.999 2°53.035 5.8944 3.138602 31.498697 -3.020363
2011-03-16 08:48:46 51°23.018 2°53.039 5.8967 3.138602 31.498697 -3.020363
2011-03-16 08:48:50 51°23.034 2°53.042 5.8994 3.138085 31.491193 -3.020363
2011-03-16 08:48:56 51°23.056 2°53.046 5.9102 3.137464 31.481662 -3.020363
2011-03-16 08:49:00 51°23.072 2°53.05 5.8987 3.13705 31.473551 -3.020363
2011-03-16 08:49:06 51°23.095 2°53.055 5.9004 3.136223 31.461727 -3.020363
2011-03-16 08:49:11 51°23.114 2°53.06 5.8951 3.135292 31.449636 -3.020363
2011-03-16 08:49:15 51°23.129 2°53.064 5.9139 3.135292 31.449636 -3.020363
2011-03-16 08:49:21 51°23.151 2°53.069 5.9014 3.134774 31.443895 -3.020363
2011-03-16 08:49:26 51°23.17 2°53.073 5.9034 3.133429 31.425458 -3.020363
2011-03-16 08:49:30 51°23.185 2°53.077 5.9012 3.133222 31.421408 -3.020363
2011-03-16 08:49:35 51°23.204 2°53.081 5.9075 3.132291 31.4102 -3.020363
2011-03-16 08:49:40 51°23.223 2°53.086 5.9071 3.13136 31.399869 -3.020363
2011-03-16 08:49:46 51°23.246 2°53.091 5.9069 3.13136 31.399869 -3.020363
2011-03-16 08:49:51 51°23.265 2°53.095 5.9145 3.131153 31.396697 -3.020363
2011-03-16 08:49:56 51°23.284 2°53.099 5.9138 3.130843 31.392378 -3.020363
2011-03-16 08:50:01 51°23.303 2°53.103 5.9066 3.130843 31.393254 -3.020363
2011-03-16 08:50:06 51°23.322 2°53.107 5.91 3.130533 31.389811 -3.020363
2011-03-16 08:50:10 51°23.337 2°53.111 5.9092 3.13074 31.390354 -3.020363
2011-03-16 08:50:16 51°23.36 2°53.115 5.9121 3.13074 31.390354 -3.020363
2011-03-16 08:50:21 51°23.379 2°53.119 5.9081 3.130843 31.391501 -3.020363
2011-03-16 08:50:26 51°23.398 2°53.123 5.9109 3.130946 31.390896 -3.020363
2011-03-16 08:50:30 51°23.413 2°53.127 5.9109 3.130946 31.389144 -3.020363
2011-03-16 08:50:35 51°23.432 2°53.13 5.9182 3.130843 31.388872 -3.020363
2011-03-16 08:50:41 51°23.455 2°53.136 5.9167 3.130636 31.386577 -3.020363
2011-03-16 08:50:45 51°23.471 2°53.139 5.9145 3.130636 31.386577 -3.020363
2011-03-16 08:50:49 51°23.486 2°53.142 5.9237 3.130533 31.38543 -3.020363
2011-03-16 08:50:56 51°23.513 2°53.149 5.9186 3.130533 31.38543 -3.020363
2011-03-16 08:51:00 51°23.528 2°53.152 5.9187 3.130015 31.380568 -3.020363
2011-03-16 08:51:06 51°23.551 2°53.157 5.9192 3.129705 31.375374 -3.020363
2011-03-16 08:51:09 51°23.562 2°53.159 5.9245 3.129291 31.369033 -3.020363
2011-03-16 08:51:16 51°23.589 2°53.166 5.9205 3.129291 31.369033 -3.020363
2011-03-16 08:51:21 51°23.609 2°53.17 5.9241 3.128877 31.363568 -3.020363
2011-03-16 08:51:25 51°23.624 2°53.174 5.9197 3.128463 31.357228 -3.020363
2011-03-16 08:51:30 51°23.643 2°53.178 5.9241 3.12805 31.351765 -3.020363
2011-03-16 08:51:35 51°23.662 2°53.181 5.9174 3.127429 31.344882 -3.020363
2011-03-16 08:51:41 51°23.685 2°53.186 5.9227 3.127325 31.34286 -3.020363
2011-03-16 08:51:46 51°23.704 2°53.191 5.9237 3.127325 31.34286 -3.020363
2011-03-16 08:51:51 51°23.723 2°53.196 5.9217 3.127532 31.344279 -3.020363
2011-03-16 08:51:54 51°23.734 2°53.199 5.9234 3.127325 31.341985 -3.020363
2011-03-16 08:52:01 51°23.761 2°53.206 5.9218 3.127532 31.343405 -3.020363
2011-03-16 08:52:06 51°23.78 2°53.21 5.9319 3.127325 31.341985 -3.020363
2011-03-16 08:52:10 51°23.795 2°53.214 5.9386 3.127739 31.346573 -3.020363
2011-03-16 08:52:16 51°23.817 2°53.218 5.9471 3.127739 31.346573 -3.020363
2011-03-16 08:52:21 51°23.836 2°53.223 5.9474 3.128153 31.350287 -3.020363
2011-03-16 08:52:26 51°23.855 2°53.226 5.9513 3.128153 31.350287 -3.020363
2011-03-16 08:52:29 51°23.866 2°53.229 5.9566 3.128981 31.359464 -3.020363
2011-03-16 08:52:35 51°23.889 2°53.235 5.9585 3.13136 31.385849 -3.020363
2011-03-16 08:52:40 51°23.908 2°53.239 5.9665 3.13674 31.441128 -3.020363
2011-03-16 08:52:46 51°23.93 2°53.244 5.9677 3.13674 31.441128 -3.020363
2011-03-16 08:52:49 51°23.942 2°53.247 5.9747 3.143154 31.506126 -3.020363
2011-03-16 08:52:55 51°23.964 2°53.252 5.9711 3.149361 31.570586 -3.020363
2011-03-16 08:53:00 51°23.983 2°53.255 5.9757 3.154741 31.625865 -3.020363
2011-03-16 08:53:05 51°24.002 2°53.259 5.9816 3.159914 31.679733 -3.020363
2011-03-16 08:53:10 51°24.021 2°53.263 5.9824 3.163638 31.716644 -3.020363
2011-03-16 08:53:14 51°24.036 2°53.266 5.9814 3.163638 31.716644 -3.020363
2011-03-16 08:53:21 51°24.063 2°53.273 5.9851 3.167673 31.756997 -3.020363
2011-03-16 08:53:26 51°24.081 2°53.277 5.9864 3.170984 31.790196 -3.020363
2011-03-16 08:53:30 51°24.097 2°53.281 5.9855 3.174191 31.822246 -3.020363
2011-03-16 08:53:34 51°24.112 2°53.285 5.9856 3.17626 31.841662 -3.020363
2011-03-16 08:53:41 51°24.138 2°53.29 5.9925 3.176881 31.845002 -3.020363
2011-03-16 08:53:45 51°24.154 2°53.294 5.9926 3.176881 31.845002 -3.020363
2011-03-16 08:53:50 51°24.172 2°53.298 5.9941 3.178536 31.861598 -3.020363
2011-03-16 08:53:55 51°24.191 2°53.302 5.9912 3.179054 31.865563 -3.020363
2011-03-16 08:54:01 51°24.214 2°53.307 5.9959 3.179467 31.86838 -3.020363
2011-03-16 08:54:05 51°24.229 2°53.31 5.9933 3.178847 31.859716 -3.020363
2011-03-16 08:54:11 51°24.252 2°53.315 5.9969 3.178847 31.858829 -3.020363
2011-03-16 08:54:16 51°24.271 2°53.319 5.9924 3.178847 31.858829 -3.020363
2011-03-16 08:54:21 51°24.29 2°53.324 5.9976 3.178122 31.848131 -3.020363
2011-03-16 08:54:25 51°24.305 2°53.327 5.9963 3.178536 31.851835 -3.020363
2011-03-16 08:54:29 51°24.32 2°53.331 5.9954 3.177708 31.841766 -3.020363
2011-03-16 08:54:36 51°24.347 2°53.336 5.9938 3.176984 31.832845 -3.020363
2011-03-16 08:54:41 51°24.366 2°53.341 5.9998 3.17626 31.823925 -3.020363
2011-03-16 08:54:45 51°24.381 2°53.345 6.001 3.17626 31.823925 -3.020363
2011-03-16 08:54:50 51°24.4 2°53.349 5.999 3.175122 31.811302 -3.020363
2011-03-16 08:54:56 51°24.423 2°53.354 6.0064 3.174294 31.801236 -3.020363
2011-03-16 08:55:00 51°24.438 2°53.358 5.9998 3.173466 31.791171 -3.020363
2011-03-16 08:55:05 51°24.457 2°53.363 5.9997 3.172018 31.775108 -3.020363
2011-03-16 08:55:09 51°24.473 2°53.366 6.0017 3.171087 31.763898 -3.020363
2011-03-16 08:55:16 51°24.499 2°53.373 6.0031 3.171087 31.763898 -3.020363
2011-03-16 08:55:21 51°24.518 2°53.377 6.006 3.170052 31.751541 -3.020363
2011-03-16 08:55:25 51°24.534 2°53.381 6.0091 3.169121 31.73945 -3.020363
2011-03-16 08:55:29 51°24.549 2°53.384 6.0141 3.168293 31.728507 -3.020363
2011-03-16 08:55:34 51°24.568 2°53.388 6.0095 3.167259 31.717038 -3.020363
2011-03-16 08:55:41 51°24.594 2°53.395 6.0061 3.166431 31.708746 -3.020363
2011-03-16 08:55:45 51°24.609 2°53.399 6.0103 3.166431 31.708746 -3.020363
2011-03-16 08:55:50 51°24.628 2°53.402 6.0154 3.165603 31.698689 -3.020363
2011-03-16 08:55:54 51°24.643 2°53.406 6.0133 3.16519 31.692337 -3.020363
2011-03-16 08:56:01 51°24.67 2°53.411 6.0143 3.164776 31.685986 -3.020363
2011-03-16 08:56:05 51°24.685 2°53.414 6.0154 3.164569 31.681047 -3.020363
2011-03-16 08:56:09 51°24.7 2°53.418 6.0167 3.164258 31.676726 -3.020363
2011-03-16 08:56:16 51°24.726 2°53.424 6.0213 3.164258 31.676726 -3.020363
2011-03-16 08:56:21 51°24.745 2°53.428 6.0199 3.163741 31.671876 -3.020363
2011-03-16 08:56:25 51°24.761 2°53.431 6.0204 3.163431 31.667555 -3.020363
2011-03-16 08:56:30 51°24.78 2°53.435 6.0263 3.163224 31.663499 -3.020363
2011-03-16 08:56:36 51°24.802 2°53.439 6.0284 3.163017 31.659444 -3.020363
2011-03-16 08:56:41 51°24.821 2°53.443 6.0277 3.16281 31.656271 -3.020363
2011-03-16 08:56:45 51°24.837 2°53.446 6.0261 3.16281 31.656271 -3.020363
2011-03-16 08:56:50 51°24.856 2°53.45 6.0308 3.162603 31.652216 -3.020363
2011-03-16 08:56:54 51°24.871 2°53.454 6.0318 3.162396 31.649043 -3.020363
2011-03-16 08:57:01 51°24.897 2°53.46 6.0287 3.161775 31.641287 -3.020363
2011-03-16 08:57:05 51°24.912 2°53.463 6.0291 3.161051 31.631504 -3.020363
2011-03-16 08:57:10 51°24.931 2°53.467 6.0316 3.16043 31.621989 -3.020363
2011-03-16 08:57:15 51°24.95 2°53.471 6.0301 3.16043 31.621989 -3.020363
2011-03-16 08:57:20 51°24.968 2°53.475 6.0291 3.160016 31.615647 -3.020363
2011-03-16 08:57:25 51°24.987 2°53.478 6.0247 3.159396 31.608773 -3.020363
2011-03-16 08:57:29 51°25.002 2°53.481 6.0274 3.157947 31.591856 -3.020363
2011-03-16 08:57:35 51°25.025 2°53.486 6.0321 3.156395 31.573795 -3.020363
2011-03-16 08:57:40 51°25.044 2°53.49 6.0342 3.155361 31.562341 -3.020363
2011-03-16 08:57:45 51°25.062 2°53.494 6.0377 3.155361 31.562341 -3.020363
2011-03-16 08:57:49 51°25.078 2°53.496 6.0324 3.155464 31.561731 -3.020363
2011-03-16 08:57:56 51°25.104 2°53.5 6.0392 3.155878 31.56719 -3.020363
2011-03-16 08:58:01 51°25.122 2°53.503 6.0356 3.155568 31.564632 -3.020363
2011-03-16 08:58:05 51°25.137 2°53.505 6.0348 3.15474 31.554592 -3.020363
2011-03-16 08:58:10 51°25.156 2°53.509 6.0326 3.153292 31.537681 -3.020363
2011-03-16 08:58:14 51°25.171 2°53.512 6.0338 3.153292 31.537681 -3.020363
2011-03-16 08:58:21 51°25.197 2°53.517 6.043 3.152671 31.529056 -3.020363
2011-03-16 08:58:25 51°25.212 2°53.52 6.0432 3.151429 31.513563 -3.020363
2011-03-16 08:58:30 51°25.23 2°53.523 6.0448 3.150809 31.505817 -3.020363
2011-03-16 08:58:34 51°25.245 2°53.527 6.0441 3.150084 31.496927 -3.020363
2011-03-16 08:58:41 51°25.272 2°53.531 6.0424 3.149257 31.487769 -3.020363
2011-03-16 08:58:45 51°25.286 2°53.533 6.0367 3.149257 31.487769 -3.020363
2011-03-16 08:58:50 51°25.305 2°53.536 6.0324 3.148015 31.474032 -3.020363
2011-03-16 08:58:56 51°25.328 2°53.539 6.0457 3.147188 31.463125 -3.020363
2011-03-16 08:59:01 51°25.346 2°53.542 6.0297 3.146567 31.453634 -3.020363
2011-03-16 08:59:05 51°25.362 2°53.545 6.0257 3.145946 31.445893 -3.020363
2011-03-16 08:59:10 51°25.38 2°53.549 6.0299 3.144911 31.434449 -3.020363
2011-03-16 08:59:16 51°25.403 2°53.553 6.0312 3.144911 31.434449 -3.020363
2011-03-16 08:59:21 51°25.421 2°53.557 6.0304 3.14367 31.421592 -3.020363
2011-03-16 08:59:25 51°25.436 2°53.559 6.0319 3.14398 31.426773 -3.020363
2011-03-16 08:59:29 51°25.451 2°53.562 6.0348 3.143877 31.425628 -3.020363
2011-03-16 08:59:36 51°25.477 2°53.568 6.0347 3.143153 31.421113 -3.020363
2011-03-16 08:59:40 51°25.492 2°53.57 6.0273 3.141808 31.407984 -3.020363
2011-03-16 08:59:45 51°25.511 2°53.573 6.0322 3.141808 31.407984 -3.020363
2011-03-16 08:59:49 51°25.526 2°53.576 6.0334 3.14036 31.392836 -3.020363
2011-03-16 08:59:56 51°25.552 2°53.58 6.0305 3.139222 31.381121 -3.020363
2011-03-16 09:00:01 51°25.571 2°53.584 6.0273 3.138808 31.375671 -3.020363
2011-03-16 09:00:05 51°25.586 2°53.586 6.0329 3.139532 31.383681 -3.020363
2011-03-16 09:00:09 51°25.601 2°53.589 6.0256 3.14098 31.399702 -3.020363
2011-03-16 09:00:16 51°25.627 2°53.593 6.0258 3.14098 31.399702 -3.020363
2011-03-16 09:00:21 51°25.646 2°53.597 6.0294 3.142739 31.420905 -3.020363
2011-03-16 09:00:26 51°25.665 2°53.599 6.0297 3.144291 31.438075 -3.020363
2011-03-16 09:00:31 51°25.684 2°53.603 6.0313 3.146463 31.462113 -3.020363
2011-03-16 09:00:36 51°25.702 2°53.606 6.0311 3.147912 31.479017 -3.020363
2011-03-16 09:00:41 51°25.721 2°53.609 6.0325 3.148636 31.487907 -3.020363
2011-03-16 09:00:46 51°25.74 2°53.612 6.0329 3.148636 31.487907 -3.020363
2011-03-16 09:00:51 51°25.759 2°53.616 6.0277 3.14905 31.493363 -3.020363
2011-03-16 09:00:55 51°25.774 2°53.618 6.0269 3.149153 31.494508 -3.020363
2011-03-16 09:01:01 51°25.797 2°53.623 6.0268 3.14905 31.493363 -3.020363
2011-03-16 09:01:06 51°25.816 2°53.627 6.0275 3.149153 31.493632 -3.020363
2011-03-16 09:01:11 51°25.835 2°53.63 6.0249 3.14936 31.495046 -3.020363
2011-03-16 09:01:14 51°25.846 2°53.632 6.0246 3.14936 31.495046 -3.020363
2011-03-16 09:01:21 51°25.873 2°53.637 6.0249 3.149464 31.495314 -3.020363
2011-03-16 09:01:26 51°25.892 2°53.641 6.0192 3.149981 31.501915 -3.020363
2011-03-16 09:01:31 51°25.911 2°53.644 6.0237 3.151016 31.515119 -3.020363
2011-03-16 09:01:36 51°25.93 2°53.647 6.0214 3.151843 31.525157 -3.020363
2011-03-16 09:01:41 51°25.949 2°53.651 6.0163 3.152567 31.534051 -3.020363
2011-03-16 09:01:46 51°25.968 2°53.654 6.0179 3.152567 31.534051 -3.020363
2011-03-16 09:01:49 51°25.979 2°53.656 6.0215 3.153395 31.544969 -3.020363
2011-03-16 09:01:56 51°26.006 2°53.661 6.0205 3.15474 31.55986 -3.020363
2011-03-16 09:02:01 51°26.025 2°53.665 6.0216 3.155982 31.575363 -3.020363
2011-03-16 09:02:06 51°26.043 2°53.668 6.0252 3.157016 31.58594 -3.020363
2011-03-16 09:02:10 51°26.058 2°53.671 6.0309 3.158258 31.602326 -3.020363
2011-03-16 09:02:16 51°26.081 2°53.675 6.0364 3.158258 31.602326 -3.020363
2011-03-16 09:02:21 51°26.1 2°53.679 6.0342 3.159603 31.618102 -3.020363
2011-03-16 09:02:26 51°26.119 2°53.682 6.037 3.16012 31.624712 -3.020363
2011-03-16 09:02:31 51°26.137 2°53.685 6.0426 3.16012 31.623831 -3.020363
2011-03-16 09:02:35 51°26.152 2°53.687 6.0442 3.159499 31.616076 -3.020363
2011-03-16 09:02:41 51°26.175 2°53.691 6.0406 3.159809 31.616874 -3.020363
2011-03-16 09:02:46 51°26.194 2°53.694 6.0506 3.159809 31.616874 -3.020363
2011-03-16 09:02:50 51°26.209 2°53.697 6.0367 3.160947 31.626838 -3.020363
2011-03-16 09:02:56 51°26.232 2°53.701 6.0405 3.161465 31.629047 -3.020363
2011-03-16 09:03:01 51°26.251 2°53.705 6.043 3.163017 31.644471 -3.020363
2011-03-16 09:03:06 51°26.27 2°53.708 6.0422 3.163741 31.65073 -3.020363
2011-03-16 09:03:11 51°26.289 2°53.711 6.0415 3.164465 31.656108 -3.020363
2011-03-16 09:03:15 51°26.304 2°53.714 6.0397 3.164465 31.656108 -3.020363
2011-03-16 09:03:21 51°26.327 2°53.718 6.037 3.1655 31.665803 -3.020363
2011-03-16 09:03:26 51°26.346 2°53.721 6.0408 3.166741 31.67955 -3.020363
2011-03-16 09:03:31 51°26.365 2°53.725 6.0345 3.168293 31.696736 -3.020363
2011-03-16 09:03:34 51°26.377 2°53.727 6.0393 3.171086 31.726791 -3.020363
2011-03-16 09:03:41 51°26.403 2°53.733 6.0368 3.173983 31.759761 -3.020363
2011-03-16 09:03:46 51°26.423 2°53.736 6.0407 3.173983 31.759761 -3.020363
2011-03-16 09:03:51 51°26.442 2°53.739 6.0396 3.176053 31.783567 -3.020363
2011-03-16 09:03:56 51°26.461 2°53.742 6.0383 3.177708 31.801908 -3.020363
2011-03-16 09:04:01 51°26.48 2°53.745 6.0379 3.179674 31.824574 -3.020363
2011-03-16 09:04:06 51°26.499 2°53.747 6.0392 3.181433 31.84495 -3.020363
2011-03-16 09:04:10 51°26.515 2°53.749 6.0322 3.183709 31.870176 -3.020363
2011-03-16 09:04:16 51°26.538 2°53.752 6.0327 3.183709 31.870176 -3.020363
2011-03-16 09:04:21 51°26.557 2°53.754 6.0324 3.185261 31.888265 -3.020363
2011-03-16 09:04:26 51°26.576 2°53.757 6.0262 3.188054 31.918344 -3.020363
2011-03-16 09:04:30 51°26.591 2°53.758 6.0284 3.190538 31.945872 -3.020363
2011-03-16 09:04:35 51°26.61 2°53.76 6.0265 3.192814 31.97111 -3.020363
2011-03-16 09:04:41 51°26.633 2°53.761 6.0249 3.194366 31.988319 -3.020363
2011-03-16 09:04:46 51°26.652 2°53.762 6.0271 3.194366 31.988319 -3.020363
2011-03-16 09:04:51 51°26.671 2°53.762 6.0265 3.197884 32.030004 -3.020363
2011-03-16 09:04:55 51°26.687 2°53.763 6.0272 3.201608 32.073999 -3.020363
2011-03-16 09:05:01 51°26.71 2°53.763 6.028 3.204919 32.112523 -3.020363
2011-03-16 09:05:06 51°26.729 2°53.764 6.0235 3.207506 32.143017 -3.020363
2011-03-16 09:05:10 51°26.744 2°53.765 6.0252 3.210403 32.17607 -3.020363
2011-03-16 09:05:16 51°26.767 2°53.765 6.0197 3.210403 32.17607 -3.020363
2011-03-16 09:05:21 51°26.786 2°53.766 6.0238 3.211852 32.191255 -3.020363
2011-03-16 09:05:26 51°26.805 2°53.766 6.0181 3.213507 32.209633 -3.020363
2011-03-16 09:05:30 51°26.821 2°53.766 6.0168 3.215163 32.22891 -3.020363
2011-03-16 09:05:36 51°26.844 2°53.767 6.0236 3.217025 32.249591 -3.020363
2011-03-16 09:05:41 51°26.863 2°53.767 6.017 3.219198 32.275516 -3.020363
2011-03-16 09:05:46 51°26.882 2°53.767 6.0221 3.219198 32.275516 -3.020363
2011-03-16 09:05:51 51°26.901 2°53.768 6.0197 3.221682 32.304896 -3.020363
2011-03-16 09:05:55 51°26.916 2°53.768 6.0208 3.224165 32.333381 -3.020363
2011-03-16 09:06:01 51°26.939 2°53.77 6.0215 3.20792 32.15298 -3.020363
2011-03-16 09:06:06 51°26.958 2°53.77 6.0206 3.2282 32.379118 -3.020363
2011-03-16 09:06:10 51°26.974 2°53.771 6.0218 3.229442 32.393818 -3.020363
2011-03-16 09:06:16 51°26.997 2°53.773 6.0268 3.229442 32.393818 -3.020363
2011-03-16 09:06:21 51°27.016 2°53.774 6.0195 3.230477 32.405317 -3.020363
2011-03-16 09:06:26 51°27.035 2°53.774 6.0165 3.230994 32.410164 -3.020363
2011-03-16 09:06:30 51°27.051 2°53.775 6.0222 3.232546 32.428317 -3.020363
2011-03-16 09:06:36 51°27.074 2°53.777 6.0273 3.232753 32.430617 -3.020363
2011-03-16 09:06:41 51°27.093 2°53.777 6.0311 3.23296 32.432917 -3.020363
2011-03-16 09:06:46 51°27.112 2°53.778 6.0297 3.23296 32.432917 -3.020363
2011-03-16 09:06:50 51°27.128 2°53.779 6.0374 3.233891 32.442365 -3.020363
2011-03-16 09:06:56 51°27.151 2°53.781 6.0321 3.234719 32.451566 -3.020363
2011-03-16 09:07:01 51°27.171 2°53.782 6.0339 3.235237 32.45822 -3.020363
2011-03-16 09:07:06 51°27.19 2°53.783 6.0374 3.235237 32.457316 -3.020363
2011-03-16 09:07:10 51°27.206 2°53.784 6.0405 3.234616 32.448609 -3.020363
2011-03-16 09:07:16 51°27.228 2°53.785 6.0431 3.234616 32.448609 -3.020363
2011-03-16 09:07:21 51°27.248 2°53.786 6.0461 3.234305 32.443353 -3.020363
2011-03-16 09:07:25 51°27.263 2°53.787 6.0503 3.233891 32.436044 -3.020363
2011-03-16 09:07:31 51°27.286 2°53.788 6.0459 3.233891 32.435141 -3.020363
2011-03-16 09:07:36 51°27.305 2°53.789 6.0533 3.233684 32.431037 -3.020363
2011-03-16 09:07:41 51°27.325 2°53.79 6.0567 3.233167 32.422581 -3.020363
2011-03-16 09:07:46 51°27.344 2°53.791 6.0598 3.233167 32.422581 -3.020363
2011-03-16 09:07:50 51°27.36 2°53.792 6.0648 3.232857 32.416426 -3.020363
2011-03-16 09:07:56 51°27.383 2°53.794 6.0688 3.232339 32.408875 -3.020363
2011-03-16 09:08:01 51°27.402 2°53.796 6.0697 3.233063 32.414216 -3.020363
2011-03-16 09:08:06 51°27.421 2°53.799 6.0743 3.232029 32.40092 -3.020363
2011-03-16 09:08:11 51°27.441 2°53.802 6.0735 3.23089 32.384675 -3.020363
2011-03-16 09:08:16 51°27.46 2°53.805 6.0766 3.23089 32.384675 -3.020363
2011-03-16 09:08:21 51°27.479 2°53.809 6.0846 3.229235 32.362691 -3.020363
2011-03-16 09:08:26 51°27.498 2°53.812 6.0832 3.22789 32.344158 -3.020363
2011-03-16 09:08:30 51°27.514 2°53.814 6.0871 3.226855 32.328178 -3.020363
2011-03-16 09:08:36 51°27.537 2°53.818 6.0894 3.224992 32.303915 -3.020363
2011-03-16 09:08:41 51°27.556 2°53.822 6.09 3.22344 32.284001 -3.020363
2011-03-16 09:08:46 51°27.576 2°53.825 6.0871 3.22344 32.284001 -3.020363
2011-03-16 09:08:50 51°27.591 2°53.828 6.0902 3.221888 32.264988 -3.020363
2011-03-16 09:08:56 51°27.614 2°53.832 6.0908 3.22106 32.25222 -3.020363
2011-03-16 09:09:01 51°27.633 2°53.835 6.0917 3.220543 32.243793 -3.020363
2011-03-16 09:09:06 51°27.652 2°53.838 6.0902 3.220232 32.237663 -3.020363
2011-03-16 09:09:10 51°27.668 2°53.84 6.0913 3.220129 32.232934 -3.020363
2011-03-16 09:09:15 51°27.687 2°53.844 6.0885 3.220129 32.232934 -3.020363
2011-03-16 09:09:21 51°27.71 2°53.847 6.0935 3.220232 32.233185 -3.020363
2011-03-16 09:09:26 51°27.729 2°53.85 6.0931 3.220646 32.236879 -3.020363
2011-03-16 09:09:31 51°27.748 2°53.853 6.0974 3.220957 32.238529 -3.020363
2011-03-16 09:09:35 51°27.763 2°53.855 6.092 3.221371 32.243118 -3.020363
2011-03-16 09:09:41 51°27.786 2°53.859 6.096 3.220646 32.234192 -3.020363
2011-03-16 09:09:46 51°27.805 2°53.862 6.0954 3.220646 32.234192 -3.020363
2011-03-16 09:09:51 51°27.824 2°53.865 6.0979 3.222923 32.258535 -3.020363
2011-03-16 09:09:56 51°27.843 2°53.868 6.0981 3.223647 32.266566 -3.020363
2011-03-16 09:10:01 51°27.862 2°53.872 6.0979 3.224475 32.273952 -3.020363
2011-03-16 09:10:06 51°27.881 2°53.875 6.0978 3.225302 32.282233 -3.020363
2011-03-16 09:10:11 51°27.9 2°53.878 6.0988 3.227165 32.301988 -3.020363
2011-03-16 09:10:16 51°27.919 2°53.881 6.0967 3.227165 32.301988 -3.020363
2011-03-16 09:10:21 51°27.938 2°53.884 6.0962 3.229131 32.322891 -3.020363
2011-03-16 09:10:26 51°27.957 2°53.887 6.0984 3.23058 32.338058 -3.020363
2011-03-16 09:10:30 51°27.973 2°53.89 6.0993 3.232546 32.358962 -3.020363
2011-03-16 09:10:35 51°27.992 2°53.893 6.1004 3.234512 32.379868 -3.020363
2011-03-16 09:10:41 51°28.014 2°53.897 6.1017 3.23565 32.392492 -3.020363
2011-03-16 09:10:46 51°28.033 2°53.9 6.104 3.23565 32.392492 -3.020363
2011-03-16 09:10:50 51°28.048 2°53.903 6.1045 3.236478 32.401674 -3.020363
2011-03-16 09:10:56 51°28.071 2°53.906 6.1018 3.237202 32.410609 -3.020363
2011-03-16 09:11:01 51°28.09 2°53.909 6.1035 3.236995 32.407413 -3.020363
2011-03-16 09:11:06 51°28.109 2°53.912 6.1039 3.235857 32.393888 -3.020363
2011-03-16 09:11:10 51°28.124 2°53.914 6.1035 3.234098 32.374378 -3.020363
2011-03-16 09:11:16 51°28.147 2°53.918 6.1034 3.234098 32.374378 -3.020363
2011-03-16 09:11:21 51°28.166 2°53.921 6.1026 3.230993 32.338157 -3.020363
2011-03-16 09:11:26 51°28.184 2°53.923 6.106 3.229027 32.314564 -3.020363
2011-03-16 09:11:30 51°28.2 2°53.925 6.1117 3.227889 32.301945 -3.020363
2011-03-16 09:11:36 51°28.222 2°53.929 6.1195 3.227682 32.299651 -3.020363
2011-03-16 09:11:41 51°28.242 2°53.932 6.1171 3.227268 32.295063 -3.020363
2011-03-16 09:11:46 51°28.26 2°53.935 6.1233 3.227268 32.295063 -3.020363
2011-03-16 09:11:51 51°28.28 2°53.937 6.1257 3.226234 32.282696 -3.020363
2011-03-16 09:11:55 51°28.295 2°53.94 6.1264 3.22375 32.25517 -3.020363
2011-03-16 09:12:01 51°28.318 2°53.943 6.1318 3.220646 32.219873 -3.020363
2011-03-16 09:12:06 51°28.337 2°53.946 6.1302 3.216714 32.173625 -3.020363
2011-03-16 09:12:11 51°28.356 2°53.949 6.1348 3.213093 32.129939 -3.020363
2011-03-16 09:12:15 51°28.371 2°53.952 6.1382 3.213093 32.129939 -3.020363
2011-03-16 09:12:21 51°28.394 2°53.955 6.1393 3.209161 32.082834 -3.020363
2011-03-16 09:12:26 51°28.413 2°53.959 6.1411 3.205126 32.034602 -3.020363
2011-03-16 09:12:31 51°28.433 2°53.962 6.1349 3.201711 31.994147 -3.020363
2011-03-16 09:12:36 51°28.452 2°53.966 6.1375 3.198917 31.960574 -3.020363
2011-03-16 09:12:41 51°28.471 2°53.969 6.1369 3.197055 31.937312 -3.020363
2011-03-16 09:12:46 51°28.49 2°53.972 6.1326 3.197055 31.937312 -3.020363
2011-03-16 09:12:50 51°28.506 2°53.974 6.1312 3.195917 31.922065 -3.020363
2011-03-16 09:12:55 51°28.525 2°53.977 6.1349 3.195606 31.915091 -3.020363
2011-03-16 09:13:01 51°28.548 2°53.981 6.1319 3.19571 31.914465 -3.020363
2011-03-16 09:13:06 51°28.567 2°53.984 6.1325 3.196227 31.921071 -3.020363
2011-03-16 09:13:10 51°28.583 2°53.986 6.1319 3.196848 31.927937 -3.020363
2011-03-16 09:13:16 51°28.606 2°53.99 6.1284 3.196848 31.927937 -3.020363
2011-03-16 09:13:21 51°28.625 2°53.993 6.1341 3.197469 31.936574 -3.020363
2011-03-16 09:13:26 51°28.644 2°53.996 6.1289 3.197986 31.943182 -3.020363
2011-03-16 09:13:30 51°28.659 2°53.998 6.1297 3.1984 31.948646 -3.020363
2011-03-16 09:13:36 51°28.682 2°54.002 6.1353 3.198607 31.951821 -3.020363
2011-03-16 09:13:41 51°28.701 2°54.005 6.1308 3.19871 31.952966 -3.020363
2011-03-16 09:13:46 51°28.72 2°54.007 6.1304 3.19871 31.952966 -3.020363
2011-03-16 09:13:50 51°28.736 2°54.01 6.1299 3.19871 31.952966 -3.020363
2011-03-16 09:13:56 51°28.759 2°54.013 6.1316 3.198607 31.951821 -3.020363
2011-03-16 09:14:01 51°28.778 2°54.016 6.1299 3.19809 31.946985 -3.020363
2011-03-16 09:14:06 51°28.798 2°54.018 6.1336 3.197262 31.936943 -3.020363
2011-03-16 09:14:11 51°28.817 2°54.021 6.1342 3.196434 31.927787 -3.020363
2011-03-16 09:14:16 51°28.836 2°54.024 6.135 3.196434 31.927787 -3.020363
2011-03-16 09:14:21 51°28.855 2°54.026 6.1367 3.195193 31.91494 -3.020363
2011-03-16 09:14:26 51°28.875 2°54.028 6.1358 3.194054 31.903237 -3.020363
2011-03-16 09:14:31 51°28.894 2°54.031 6.1338 3.193123 31.892054 -3.020363
2011-03-16 09:14:36 51°28.913 2°54.033 6.1349 3.192192 31.881756 -3.020363
2011-03-16 09:14:41 51°28.933 2°54.036 6.1344 3.191571 31.874006 -3.020363
2011-03-16 09:14:46 51°28.952 2°54.039 6.1341 3.191571 31.874006 -3.020363
2011-03-16 09:14:51 51°28.972 2°54.042 6.1317 3.190744 31.86397 -3.020363
2011-03-16 09:14:55 51°28.987 2°54.044 6.1319 3.190019 31.855078 -3.020363
2011-03-16 09:15:01 51°29.01 2°54.048 6.1305 3.189502 31.848475 -3.020363
2011-03-16 09:15:06 51°29.029 2°54.05 6.1311 3.188985 31.842755 -3.020363
2011-03-16 09:15:10 51°29.044 2°54.052 6.133 3.188467 31.837036 -3.020363
2011-03-16 09:15:16 51°29.067 2°54.056 6.1327 3.188467 31.837036 -3.020363
2011-03-16 09:15:21 51°29.086 2°54.059 6.1336 3.18795 31.832199 -3.020363
2011-03-16 09:15:26 51°29.105 2°54.063 6.1384 3.187743 31.830794 -3.020363
2011-03-16 09:15:30 51°29.12 2°54.066 6.1368 3.187433 31.827363 -3.020363
2011-03-16 09:15:36 51°29.143 2°54.071 6.1413 3.186605 31.819095 -3.020363
2011-03-16 09:15:41 51°29.161 2°54.074 6.1389 3.18557 31.807656 -3.020363
2011-03-16 09:15:46 51°29.18 2°54.078 6.1394 3.18557 31.807656 -3.020363
2011-03-16 09:15:50 51°29.195 2°54.081 6.1377 3.184536 31.796219 -3.020363
2011-03-16 09:15:56 51°29.217 2°54.084 6.1382 3.184536 31.795337 -3.020363
2011-03-16 09:16:01 51°29.235 2°54.088 6.1347 3.185777 31.806415 -3.020363
2011-03-16 09:16:06 51°29.254 2°54.091 6.1335 3.188674 31.837557 -3.020363
2011-03-16 09:16:10 51°29.269 2°54.094 6.134 3.192192 31.875566 -3.020363